Time,TemperatureF,DewpointF,PressureIn,WindDirection,WindDirectionDegrees,WindSpeedMPH,WindSpeedGustMPH,Humidity,HourlyPrecipIn,Conditions,Clouds,dailyrainin,SoftwareType,DateUTC
2013-12-27 00:00:00,16.9,11.3,30.27,SW,225,0.0,0.0,78,0.00,,SKC,0.00,VWS V14.00,2013-12-27 08:00:00,
2013-12-27 00:01:00,16.7,11.1,30.27,SW,225,0.0,0.0,78,0.00,,SKC,0.00,VWS V14.00,2013-12-27 08:01:00,
2013-12-27 00:03:00,16.7,10.8,30.27,SW,225,0.0,0.0,77,0.00,,SKC,0.00,VWS V14.00,2013-12-27 08:03:00,
2013-12-27 00:04:00,16.7,10.8,30.27,SW,225,0.0,0.0,77,0.00,,SKC,0.00,VWS V14.00,2013-12-27 08:04:00,
2013-12-27 00:05:00,16.6,10.6,30.27,SW,225,0.0,0.0,77,0.00,,SKC,0.00,VWS V14.00,2013-12-27 08:05:00,
2013-12-27 00:06:00,16.6,10.6,30.27,SW,225,0.0,0.0,77,0.00,,SKC,0.00,VWS V14.00,2013-12-27 08:06:00,
2013-12-27 00:08:00,16.6,10.6,30.27,SW,225,0.0,0.0,77,0.00,,SKC,0.00,VWS V14.00,2013-12-27 08:08:00,
2013-12-27 00:09:00,16.6,10.6,30.27,SW,225,0.0,0.0,77,0.00,,SKC,0.00,VWS V14.00,2013-12-27 08:09:00,
2013-12-27 00:11:00,16.6,10.6,30.27,SW,225,0.0,0.0,77,0.00,,SKC,0.00,VWS V14.00,2013-12-27 08:11:00,
2013-12-27 00:13:00,16.6,10.6,30.27,SW,225,0.0,0.0,77,0.00,,SKC,0.00,VWS V14.00,2013-12-27 08:13:00,
2013-12-27 00:15:00,16.6,10.6,30.27,SW,225,0.0,0.0,77,0.00,,SKC,0.00,VWS V14.00,2013-12-27 08:15:00,
2013-12-27 00:16:00,16.6,10.6,30.27,SW,225,0.0,0.0,77,0.00,,SKC,0.00,VWS V14.00,2013-12-27 08:16:00,
2013-12-27 00:18:00,16.4,10.4,30.27,SW,225,0.0,0.0,77,0.00,,SKC,0.00,VWS V14.00,2013-12-27 08:18:00,
2013-12-27 00:20:00,16.4,10.1,30.27,SW,225,0.0,0.0,76,0.00,,SKC,0.00,VWS V14.00,2013-12-27 08:20:00,
2013-12-27 00:21:00,16.2,10.0,30.27,SW,225,0.0,0.0,76,0.00,,SKC,0.00,VWS V14.00,2013-12-27 08:21:00,
2013-12-27 00:23:00,16.0,9.5,30.27,SW,225,0.0,0.0,75,0.00,,SKC,0.00,VWS V14.00,2013-12-27 08:23:00,
2013-12-27 00:25:00,16.0,9.5,30.27,SW,225,0.0,0.0,75,0.00,,SKC,0.00,VWS V14.00,2013-12-27 08:25:00,
2013-12-27 00:26:00,15.8,9.3,30.27,SW,225,0.0,0.0,75,0.00,,SKC,0.00,VWS V14.00,2013-12-27 08:26:00,
2013-12-27 00:28:00,15.7,8.9,30.27,SW,225,0.0,0.0,74,0.00,,SKC,0.00,VWS V14.00,2013-12-27 08:28:00,
2013-12-27 00:30:00,15.5,8.7,30.27,SW,225,0.0,0.0,74,0.00,,SKC,0.00,VWS V14.00,2013-12-27 08:30:00,
2013-12-27 00:31:00,15.3,8.2,30.27,SW,225,0.0,0.0,73,0.00,,SKC,0.00,VWS V14.00,2013-12-27 08:31:00,
2013-12-27 00:34:00,15.3,8.2,30.27,SW,225,0.0,0.0,73,0.00,,SKC,0.00,VWS V14.00,2013-12-27 08:34:00,
2013-12-27 00:35:00,15.3,8.2,30.27,SW,225,0.0,0.0,73,0.00,,SKC,0.00,VWS V14.00,2013-12-27 08:35:00,
2013-12-27 00:36:00,15.3,8.2,30.27,SW,225,0.0,0.0,73,0.00,,SKC,0.00,VWS V14.00,2013-12-27 08:36:00,
2013-12-27 00:39:00,15.5,8.7,30.27,SW,225,0.0,0.0,74,0.00,,SKC,0.00,VWS V14.00,2013-12-27 08:39:00,
2013-12-27 00:40:00,15.5,8.7,30.27,SW,225,0.0,0.0,74,0.00,,SKC,0.00,VWS V14.00,2013-12-27 08:40:00,
2013-12-27 00:41:00,15.3,8.5,30.27,SW,225,0.0,0.0,74,0.00,,SKC,0.00,VWS V14.00,2013-12-27 08:41:00,
2013-12-27 00:42:00,15.3,8.5,30.27,SW,225,0.0,0.0,74,0.00,,SKC,0.00,VWS V14.00,2013-12-27 08:42:00,
2013-12-27 00:44:00,15.3,8.5,30.27,SW,225,0.0,0.0,74,0.00,,SKC,0.00,VWS V14.00,2013-12-27 08:44:00,
2013-12-27 00:45:00,15.3,8.5,30.27,SW,225,0.0,0.0,74,0.00,,SKC,0.00,VWS V14.00,2013-12-27 08:45:00,
2013-12-27 00:46:00,15.3,8.5,30.27,SW,225,0.0,0.0,74,0.00,,SKC,0.00,VWS V14.00,2013-12-27 08:46:00,
2013-12-27 00:47:00,15.1,8.3,30.27,SW,225,0.0,0.0,74,0.00,,SKC,0.00,VWS V14.00,2013-12-27 08:47:00,
2013-12-27 00:49:00,14.9,7.9,30.27,SW,225,0.0,0.0,73,0.00,,SKC,0.00,VWS V14.00,2013-12-27 08:49:00,
2013-12-27 00:50:00,14.9,7.9,30.27,SW,225,0.0,0.0,73,0.00,,SKC,0.00,VWS V14.00,2013-12-27 08:50:00,
2013-12-27 00:51:00,14.9,7.9,30.27,SW,225,0.0,0.0,73,0.00,,SKC,0.00,VWS V14.00,2013-12-27 08:51:00,
2013-12-27 00:52:00,14.8,7.7,30.27,SW,225,0.0,0.0,73,0.00,,SKC,0.00,VWS V14.00,2013-12-27 08:52:00,
2013-12-27 00:54:00,14.9,7.9,30.27,SW,225,0.0,0.0,73,0.00,,SKC,0.00,VWS V14.00,2013-12-27 08:54:00,
2013-12-27 00:55:00,14.9,7.9,30.27,SW,225,0.0,0.0,73,0.00,,SKC,0.00,VWS V14.00,2013-12-27 08:55:00,
2013-12-27 00:56:00,14.9,7.9,30.27,SW,225,0.0,0.0,73,0.00,,SKC,0.00,VWS V14.00,2013-12-27 08:56:00,
2013-12-27 00:57:00,14.9,7.9,30.27,SW,225,0.0,0.0,73,0.00,,SKC,0.00,VWS V14.00,2013-12-27 08:57:00,
2013-12-27 00:59:00,14.9,7.9,30.27,SW,225,0.0,0.0,73,0.00,,SKC,0.00,VWS V14.00,2013-12-27 08:59:00,
2013-12-27 01:00:00,14.9,7.9,30.27,SW,225,0.0,0.0,73,0.00,,SKC,0.00,VWS V14.00,2013-12-27 09:00:00,
2013-12-27 01:02:00,14.9,7.9,30.27,SW,225,0.0,0.0,73,0.00,,SKC,0.00,VWS V14.00,2013-12-27 09:02:00,
2013-12-27 01:05:00,14.8,7.4,30.27,SW,225,0.0,0.0,72,0.00,,SKC,0.00,VWS V14.00,2013-12-27 09:05:00,
2013-12-27 01:06:00,14.8,7.4,30.27,SW,225,0.0,0.0,72,0.00,,SKC,0.00,VWS V14.00,2013-12-27 09:06:00,
2013-12-27 01:07:00,14.8,7.4,30.27,SW,225,0.0,0.0,72,0.00,,SKC,0.00,VWS V14.00,2013-12-27 09:07:00,
2013-12-27 01:08:00,14.6,7.2,30.27,SW,225,0.0,0.0,72,0.00,,SKC,0.00,VWS V14.00,2013-12-27 09:08:00,
2013-12-27 01:10:00,14.6,7.2,30.27,SW,225,0.0,0.0,72,0.00,,SKC,0.00,VWS V14.00,2013-12-27 09:10:00,
2013-12-27 01:11:00,14.6,7.2,30.27,SW,225,0.0,0.0,72,0.00,,SKC,0.00,VWS V14.00,2013-12-27 09:11:00,
2013-12-27 01:12:00,14.6,7.2,30.27,SW,225,0.0,0.0,72,0.00,,SKC,0.00,VWS V14.00,2013-12-27 09:12:00,
2013-12-27 01:13:00,14.6,7.2,30.27,SW,225,0.0,0.0,72,0.00,,SKC,0.00,VWS V14.00,2013-12-27 09:13:00,
2013-12-27 01:15:00,14.6,7.2,30.27,SW,225,0.0,0.0,72,0.00,,SKC,0.00,VWS V14.00,2013-12-27 09:15:00,
2013-12-27 01:16:00,14.6,7.2,30.27,SW,225,0.0,0.0,72,0.00,,SKC,0.00,VWS V14.00,2013-12-27 09:16:00,
2013-12-27 01:17:00,14.6,7.2,30.27,SW,225,0.0,0.0,72,0.00,,SKC,0.00,VWS V14.00,2013-12-27 09:17:00,
2013-12-27 01:18:00,14.6,7.2,30.27,SW,225,0.0,0.0,72,0.00,,SKC,0.00,VWS V14.00,2013-12-27 09:18:00,
2013-12-27 01:20:00,14.6,7.5,30.27,SW,225,0.0,0.0,73,0.00,,SKC,0.00,VWS V14.00,2013-12-27 09:20:00,
2013-12-27 01:21:00,14.6,7.8,30.27,SW,225,0.0,0.0,74,0.00,,SKC,0.00,VWS V14.00,2013-12-27 09:21:00,
2013-12-27 01:22:00,14.6,7.8,30.27,SW,225,0.0,0.0,74,0.00,,SKC,0.00,VWS V14.00,2013-12-27 09:22:00,
2013-12-27 01:23:00,14.6,7.8,30.27,SW,225,0.0,0.0,74,0.00,,SKC,0.00,VWS V14.00,2013-12-27 09:23:00,
2013-12-27 01:25:00,14.6,8.1,30.27,SW,225,0.0,0.0,75,0.00,,SKC,0.00,VWS V14.00,2013-12-27 09:25:00,
2013-12-27 01:27:00,14.6,8.1,30.27,SW,225,0.0,0.0,75,0.00,,SKC,0.00,VWS V14.00,2013-12-27 09:27:00,
2013-12-27 01:28:00,14.6,8.1,30.27,SW,225,0.0,0.0,75,0.00,,SKC,0.00,VWS V14.00,2013-12-27 09:28:00,
2013-12-27 01:29:00,14.6,8.1,30.24,SW,225,0.0,0.0,75,0.00,,SKC,0.00,VWS V14.00,2013-12-27 09:29:00,
2013-12-27 01:31:00,14.6,7.8,30.24,SW,225,0.0,0.0,74,0.00,,SKC,0.00,VWS V14.00,2013-12-27 09:31:00,
2013-12-27 01:32:00,14.6,7.8,30.24,SW,225,0.0,0.0,74,0.00,,SKC,0.00,VWS V14.00,2013-12-27 09:32:00,
2013-12-27 01:33:00,14.6,7.8,30.24,SW,225,0.0,0.0,74,0.00,,SKC,0.00,VWS V14.00,2013-12-27 09:33:00,
2013-12-27 01:34:00,14.6,7.8,30.24,SW,225,0.0,0.0,74,0.00,,SKC,0.00,VWS V14.00,2013-12-27 09:34:00,
2013-12-27 01:36:00,14.4,7.6,30.24,SW,225,0.0,0.0,74,0.00,,SKC,0.00,VWS V14.00,2013-12-27 09:36:00,
2013-12-27 01:37:00,14.4,7.3,30.24,SW,225,1.6,1.6,73,0.00,,SKC,0.00,VWS V14.00,2013-12-27 09:37:00,
2013-12-27 01:38:00,14.4,7.3,30.24,SW,225,1.1,1.1,73,0.00,,SKC,0.00,VWS V14.00,2013-12-27 09:38:00,
2013-12-27 01:39:00,14.4,7.0,30.24,SW,225,1.3,1.3,72,0.00,,SKC,0.00,VWS V14.00,2013-12-27 09:39:00,
2013-12-27 01:41:00,14.4,7.0,30.24,SW,225,0.0,0.0,72,0.00,,SKC,0.00,VWS V14.00,2013-12-27 09:41:00,
2013-12-27 01:43:00,14.4,7.0,30.24,SW,225,0.0,0.0,72,0.00,,SKC,0.00,VWS V14.00,2013-12-27 09:43:00,
2013-12-27 01:44:00,14.4,7.0,30.27,SW,225,0.0,0.0,72,0.00,,SKC,0.00,VWS V14.00,2013-12-27 09:44:00,
2013-12-27 01:45:00,14.4,7.0,30.27,SW,225,0.0,0.0,72,0.00,,SKC,0.00,VWS V14.00,2013-12-27 09:45:00,
2013-12-27 01:46:00,14.4,7.3,30.27,SW,225,0.0,0.0,73,0.00,,SKC,0.00,VWS V14.00,2013-12-27 09:46:00,
2013-12-27 01:48:00,14.6,7.2,30.27,SW,225,0.0,0.0,72,0.00,,SKC,0.00,VWS V14.00,2013-12-27 09:48:00,
2013-12-27 01:49:00,14.6,7.2,30.27,SW,225,0.0,0.0,72,0.00,,SKC,0.00,VWS V14.00,2013-12-27 09:49:00,
2013-12-27 01:50:00,14.6,7.2,30.27,SW,225,0.0,0.0,72,0.00,,SKC,0.00,VWS V14.00,2013-12-27 09:50:00,
2013-12-27 01:51:00,14.6,7.2,30.27,SW,225,0.0,0.0,72,0.00,,SKC,0.00,VWS V14.00,2013-12-27 09:51:00,
2013-12-27 01:53:00,14.8,7.4,30.27,SW,225,0.0,0.0,72,0.00,,SKC,0.00,VWS V14.00,2013-12-27 09:53:00,
2013-12-27 01:54:00,14.9,7.9,30.27,SW,225,0.0,0.0,73,0.00,,SKC,0.00,VWS V14.00,2013-12-27 09:54:00,
2013-12-27 01:55:00,14.9,7.9,30.27,SW,225,0.0,0.0,73,0.00,,SKC,0.00,VWS V14.00,2013-12-27 09:55:00,
2013-12-27 01:56:00,14.9,7.9,30.27,SW,225,0.0,0.0,73,0.00,,SKC,0.00,VWS V14.00,2013-12-27 09:56:00,
2013-12-27 01:58:00,15.1,8.3,30.27,SW,225,0.0,0.0,74,0.00,,SKC,0.00,VWS V14.00,2013-12-27 09:58:00,
2013-12-27 01:59:00,15.1,8.3,30.27,SW,225,0.0,0.0,74,0.00,,SKC,0.00,VWS V14.00,2013-12-27 09:59:00,
2013-12-27 02:00:00,14.9,8.2,30.27,SW,225,0.0,0.0,74,0.00,,SKC,0.00,VWS V14.00,2013-12-27 10:00:00,
2013-12-27 02:01:00,14.9,8.2,30.27,SW,225,0.0,0.0,74,0.00,,SKC,0.00,VWS V14.00,2013-12-27 10:01:00,
2013-12-27 02:03:00,15.1,8.3,30.27,SW,225,0.0,0.0,74,0.00,,SKC,0.00,VWS V14.00,2013-12-27 10:03:00,
2013-12-27 02:04:00,15.1,8.3,30.27,SW,225,0.0,0.0,74,0.00,,SKC,0.00,VWS V14.00,2013-12-27 10:04:00,
2013-12-27 02:05:00,15.1,8.3,30.27,SW,225,0.0,0.0,74,0.00,,SKC,0.00,VWS V14.00,2013-12-27 10:05:00,
2013-12-27 02:06:00,15.1,8.3,30.27,SW,225,0.0,0.0,74,0.00,,SKC,0.00,VWS V14.00,2013-12-27 10:06:00,
2013-12-27 02:08:00,14.9,7.9,30.27,SW,225,0.0,0.0,73,0.00,,SKC,0.00,VWS V14.00,2013-12-27 10:08:00,
2013-12-27 02:09:00,14.9,7.9,30.27,SW,225,0.0,0.0,73,0.00,,SKC,0.00,VWS V14.00,2013-12-27 10:09:00,
2013-12-27 02:10:00,14.8,7.7,30.27,SW,225,0.0,0.0,73,0.00,,SKC,0.00,VWS V14.00,2013-12-27 10:10:00,
2013-12-27 02:11:00,14.6,7.5,30.27,SW,225,0.0,0.0,73,0.00,,SKC,0.00,VWS V14.00,2013-12-27 10:11:00,
2013-12-27 02:14:00,14.6,7.2,30.27,SW,225,0.0,0.0,72,0.00,,SKC,0.00,VWS V14.00,2013-12-27 10:14:00,
2013-12-27 02:15:00,14.2,6.9,30.27,SW,225,0.0,0.0,72,0.00,,SKC,0.00,VWS V14.00,2013-12-27 10:15:00,
2013-12-27 02:16:00,14.2,6.9,30.27,SW,225,0.0,0.0,72,0.00,,SKC,0.00,VWS V14.00,2013-12-27 10:16:00,
2013-12-27 02:19:00,14.2,7.2,30.27,SW,225,0.0,0.0,73,0.00,,SKC,0.00,VWS V14.00,2013-12-27 10:19:00,
2013-12-27 02:20:00,14.2,7.5,30.27,SW,225,0.0,0.0,74,0.00,,SKC,0.00,VWS V14.00,2013-12-27 10:20:00,
2013-12-27 02:21:00,14.2,7.8,30.27,SW,225,0.0,0.0,75,0.00,,SKC,0.00,VWS V14.00,2013-12-27 10:21:00,
2013-12-27 02:24:00,14.0,7.6,30.27,SW,225,0.0,0.0,75,0.00,,SKC,0.00,VWS V14.00,2013-12-27 10:24:00,
2013-12-27 02:25:00,14.0,7.6,30.27,SW,225,0.0,0.0,75,0.00,,SKC,0.00,VWS V14.00,2013-12-27 10:25:00,
2013-12-27 02:26:00,14.0,7.6,30.27,SW,225,0.0,0.0,75,0.00,,SKC,0.00,VWS V14.00,2013-12-27 10:26:00,
2013-12-27 02:27:00,14.0,7.6,30.27,SW,225,0.0,0.0,75,0.00,,SKC,0.00,VWS V14.00,2013-12-27 10:27:00,
2013-12-27 02:29:00,13.9,7.1,30.27,SW,225,0.0,0.0,74,0.00,,SKC,0.00,VWS V14.00,2013-12-27 10:29:00,
2013-12-27 02:31:00,13.7,6.9,30.27,SW,225,0.0,0.0,74,0.00,,SKC,0.00,VWS V14.00,2013-12-27 10:31:00,
2013-12-27 02:32:00,13.7,6.7,30.27,SW,225,0.0,0.0,73,0.00,,SKC,0.00,VWS V14.00,2013-12-27 10:32:00,
2013-12-27 02:34:00,13.7,6.7,30.27,SW,225,0.0,0.0,73,0.00,,SKC,0.00,VWS V14.00,2013-12-27 10:34:00,
2013-12-27 02:36:00,13.7,6.9,30.27,SW,225,0.0,0.0,74,0.00,,SKC,0.00,VWS V14.00,2013-12-27 10:36:00,
2013-12-27 02:37:00,13.7,6.9,30.27,SW,225,0.0,0.0,74,0.00,,SKC,0.00,VWS V14.00,2013-12-27 10:37:00,
2013-12-27 02:39:00,13.7,6.9,30.27,SW,225,0.0,0.0,74,0.00,,SKC,0.00,VWS V14.00,2013-12-27 10:39:00,
2013-12-27 02:40:00,13.7,6.9,30.27,SW,225,0.0,0.0,74,0.00,,SKC,0.00,VWS V14.00,2013-12-27 10:40:00,
2013-12-27 02:41:00,13.7,6.9,30.27,SW,225,0.0,0.0,74,0.00,,SKC,0.00,VWS V14.00,2013-12-27 10:41:00,
2013-12-27 02:42:00,13.7,6.9,30.27,SW,225,0.0,0.0,74,0.00,,SKC,0.00,VWS V14.00,2013-12-27 10:42:00,
2013-12-27 02:43:00,13.7,6.9,30.27,SW,225,0.0,0.0,74,0.00,,SKC,0.00,VWS V14.00,2013-12-27 10:43:00,
2013-12-27 02:45:00,13.7,6.9,30.27,SW,225,0.0,0.0,74,0.00,,SKC,0.00,VWS V14.00,2013-12-27 10:45:00,
2013-12-27 02:46:00,13.7,6.9,30.27,SW,225,0.0,0.0,74,0.00,,SKC,0.00,VWS V14.00,2013-12-27 10:46:00,
2013-12-27 02:48:00,13.7,6.7,30.27,SW,225,0.0,0.0,73,0.00,,SKC,0.00,VWS V14.00,2013-12-27 10:48:00,
2013-12-27 02:50:00,13.7,6.7,30.27,SW,225,0.0,0.0,73,0.00,,SKC,0.00,VWS V14.00,2013-12-27 10:50:00,
2013-12-27 02:51:00,13.7,6.7,30.27,SW,225,0.0,0.0,73,0.00,,SKC,0.00,VWS V14.00,2013-12-27 10:51:00,
2013-12-27 02:53:00,13.5,6.5,30.27,SW,225,0.0,0.0,73,0.00,,SKC,0.00,VWS V14.00,2013-12-27 10:53:00,
2013-12-27 02:55:00,13.7,6.7,30.27,SW,225,0.0,0.0,73,0.00,,SKC,0.00,VWS V14.00,2013-12-27 10:55:00,
2013-12-27 02:56:00,13.7,6.9,30.27,SW,225,0.0,0.0,74,0.00,,SKC,0.00,VWS V14.00,2013-12-27 10:56:00,
2013-12-27 02:57:00,13.7,6.9,30.27,SW,225,0.0,0.0,74,0.00,,SKC,0.00,VWS V14.00,2013-12-27 10:57:00,
2013-12-27 02:58:00,13.7,6.9,30.27,SW,225,0.0,0.0,74,0.00,,SKC,0.00,VWS V14.00,2013-12-27 10:58:00,
2013-12-27 03:00:00,13.9,7.7,30.27,SW,225,0.0,0.0,76,0.00,,SKC,0.00,VWS V14.00,2013-12-27 11:00:00,
2013-12-27 03:01:00,13.9,7.7,30.27,SW,225,0.0,0.0,76,0.00,,SKC,0.00,VWS V14.00,2013-12-27 11:01:00,
2013-12-27 03:02:00,13.9,7.7,30.27,SW,225,0.0,0.0,76,0.00,,SKC,0.00,VWS V14.00,2013-12-27 11:02:00,
2013-12-27 03:03:00,13.9,8.0,30.27,SW,225,0.0,0.0,77,0.00,,SKC,0.00,VWS V14.00,2013-12-27 11:03:00,
2013-12-27 03:04:00,13.9,8.0,30.27,SW,225,0.0,0.0,77,0.00,,SKC,0.00,VWS V14.00,2013-12-27 11:04:00,
2013-12-27 03:05:00,13.9,8.3,30.27,SW,225,0.0,0.0,78,0.00,,SKC,0.00,VWS V14.00,2013-12-27 11:05:00,
2013-12-27 03:06:00,14.0,8.5,30.27,SW,225,0.0,0.0,78,0.00,,SKC,0.00,VWS V14.00,2013-12-27 11:06:00,
2013-12-27 03:07:00,13.9,8.3,30.27,SW,225,0.0,0.0,78,0.00,,SKC,0.00,VWS V14.00,2013-12-27 11:07:00,
2013-12-27 03:08:00,14.0,8.5,30.27,SW,225,0.0,0.0,78,0.00,,SKC,0.00,VWS V14.00,2013-12-27 11:08:00,
2013-12-27 03:09:00,14.0,8.5,30.27,SW,225,0.0,0.0,78,0.00,,SKC,0.00,VWS V14.00,2013-12-27 11:09:00,
2013-12-27 03:10:00,14.0,8.5,30.27,SW,225,0.0,0.0,78,0.00,,SKC,0.00,VWS V14.00,2013-12-27 11:10:00,
2013-12-27 03:11:00,14.0,8.5,30.27,SW,225,0.0,0.0,78,0.00,,SKC,0.00,VWS V14.00,2013-12-27 11:11:00,
2013-12-27 03:12:00,14.0,8.5,30.27,SW,225,0.0,0.0,78,0.00,,SKC,0.00,VWS V14.00,2013-12-27 11:12:00,
2013-12-27 03:13:00,14.0,8.5,30.27,SW,225,0.0,0.0,78,0.00,,SKC,0.00,VWS V14.00,2013-12-27 11:13:00,
2013-12-27 03:14:00,14.0,8.5,30.27,SW,225,0.0,0.0,78,0.00,,SKC,0.00,VWS V14.00,2013-12-27 11:14:00,
2013-12-27 03:15:00,14.0,8.2,30.27,SW,225,0.0,0.0,77,0.00,,SKC,0.00,VWS V14.00,2013-12-27 11:15:00,
2013-12-27 03:16:00,14.0,8.2,30.27,SW,225,0.0,0.0,77,0.00,,SKC,0.00,VWS V14.00,2013-12-27 11:16:00,
2013-12-27 03:17:00,14.0,8.2,30.27,SW,225,0.0,0.0,77,0.00,,SKC,0.00,VWS V14.00,2013-12-27 11:17:00,
2013-12-27 03:18:00,13.9,7.7,30.27,SW,225,0.0,0.0,76,0.00,,SKC,0.00,VWS V14.00,2013-12-27 11:18:00,
2013-12-27 03:19:00,13.9,7.7,30.27,SW,225,0.0,0.0,76,0.00,,SKC,0.00,VWS V14.00,2013-12-27 11:19:00,
2013-12-27 03:21:00,13.7,7.2,30.27,SW,225,0.0,0.0,75,0.00,,SKC,0.00,VWS V14.00,2013-12-27 11:21:00,
2013-12-27 03:22:00,13.7,6.9,30.27,SW,225,0.0,0.0,74,0.00,,SKC,0.00,VWS V14.00,2013-12-27 11:22:00,
2013-12-27 03:23:00,13.5,6.8,30.27,SW,225,0.0,0.0,74,0.00,,SKC,0.00,VWS V14.00,2013-12-27 11:23:00,
2013-12-27 03:24:00,13.5,6.5,30.27,SW,225,0.0,0.0,73,0.00,,SKC,0.00,VWS V14.00,2013-12-27 11:24:00,
2013-12-27 03:26:00,13.5,6.5,30.27,SW,225,0.0,0.0,73,0.00,,SKC,0.00,VWS V14.00,2013-12-27 11:26:00,
2013-12-27 03:27:00,13.5,6.5,30.27,SW,225,0.0,0.0,73,0.00,,SKC,0.00,VWS V14.00,2013-12-27 11:27:00,
2013-12-27 03:29:00,13.5,6.5,30.27,SW,225,0.0,0.0,73,0.00,,SKC,0.00,VWS V14.00,2013-12-27 11:29:00,
2013-12-27 03:30:00,13.5,6.5,30.27,SW,225,0.0,0.0,73,0.00,,SKC,0.00,VWS V14.00,2013-12-27 11:30:00,
2013-12-27 03:31:00,13.5,6.5,30.27,SW,225,0.0,0.0,73,0.00,,SKC,0.00,VWS V14.00,2013-12-27 11:31:00,
2013-12-27 03:32:00,13.3,6.0,30.27,SW,225,0.0,0.0,72,0.00,,SKC,0.00,VWS V14.00,2013-12-27 11:32:00,
2013-12-27 03:34:00,13.3,6.0,30.27,SW,225,0.0,0.0,72,0.00,,SKC,0.00,VWS V14.00,2013-12-27 11:34:00,
2013-12-27 03:35:00,13.3,6.0,30.27,SW,225,0.0,0.0,72,0.00,,SKC,0.00,VWS V14.00,2013-12-27 11:35:00,
2013-12-27 03:36:00,13.3,6.0,30.27,SW,225,0.0,0.0,72,0.00,,SKC,0.00,VWS V14.00,2013-12-27 11:36:00,
2013-12-27 03:37:00,13.3,6.0,30.27,SW,225,0.0,0.0,72,0.00,,SKC,0.00,VWS V14.00,2013-12-27 11:37:00,
2013-12-27 03:39:00,13.1,5.8,30.27,SW,225,0.0,0.0,72,0.00,,SKC,0.00,VWS V14.00,2013-12-27 11:39:00,
2013-12-27 03:40:00,13.1,5.8,30.27,SW,225,0.0,0.0,72,0.00,,SKC,0.00,VWS V14.00,2013-12-27 11:40:00,
2013-12-27 03:41:00,13.1,5.8,30.27,SW,225,0.0,0.0,72,0.00,,SKC,0.00,VWS V14.00,2013-12-27 11:41:00,
2013-12-27 03:42:00,13.1,5.8,30.27,SW,225,0.0,0.0,72,0.00,,SKC,0.00,VWS V14.00,2013-12-27 11:42:00,
2013-12-27 03:45:00,13.1,5.8,30.27,SW,225,0.0,0.0,72,0.00,,SKC,0.00,VWS V14.00,2013-12-27 11:45:00,
2013-12-27 03:46:00,13.1,5.8,30.27,SW,225,0.0,0.0,72,0.00,,SKC,0.00,VWS V14.00,2013-12-27 11:46:00,
2013-12-27 03:47:00,13.1,5.5,30.27,SW,225,0.0,0.0,71,0.00,,SKC,0.00,VWS V14.00,2013-12-27 11:47:00,
2013-12-27 03:50:00,13.1,5.5,30.27,SW,225,0.0,0.0,71,0.00,,SKC,0.00,VWS V14.00,2013-12-27 11:50:00,
2013-12-27 03:51:00,13.1,5.5,30.27,SW,225,0.0,0.0,71,0.00,,SKC,0.00,VWS V14.00,2013-12-27 11:51:00,
2013-12-27 03:52:00,13.1,5.5,30.27,SW,225,0.0,0.0,71,0.00,,SKC,0.00,VWS V14.00,2013-12-27 11:52:00,
2013-12-27 03:53:00,13.1,5.5,30.27,SW,225,0.0,0.0,71,0.00,,SKC,0.00,VWS V14.00,2013-12-27 11:53:00,
2013-12-27 03:55:00,13.0,5.3,30.27,SW,225,0.0,0.0,71,0.00,,SKC,0.00,VWS V14.00,2013-12-27 11:55:00,
2013-12-27 03:56:00,12.8,5.2,30.27,SW,225,0.0,0.0,71,0.00,,SKC,0.00,VWS V14.00,2013-12-27 11:56:00,
2013-12-27 03:57:00,12.8,4.9,30.27,SW,225,0.0,0.0,70,0.00,,SKC,0.00,VWS V14.00,2013-12-27 11:57:00,
2013-12-27 03:58:00,12.8,4.9,30.27,SW,225,0.0,0.0,70,0.00,,SKC,0.00,VWS V14.00,2013-12-27 11:58:00,
2013-12-27 04:00:00,12.6,5.0,30.27,SW,225,0.0,0.0,71,0.00,,SKC,0.00,VWS V14.00,2013-12-27 12:00:00,
2013-12-27 04:01:00,12.6,5.0,30.27,SW,225,0.0,0.0,71,0.00,,SKC,0.00,VWS V14.00,2013-12-27 12:01:00,
2013-12-27 04:02:00,12.6,5.0,30.27,SW,225,0.0,0.0,71,0.00,,SKC,0.00,VWS V14.00,2013-12-27 12:02:00,
2013-12-27 04:03:00,12.6,5.0,30.27,SW,225,0.0,0.0,71,0.00,,SKC,0.00,VWS V14.00,2013-12-27 12:03:00,
2013-12-27 04:06:00,12.6,5.0,30.27,SW,225,0.0,0.0,71,0.00,,SKC,0.00,VWS V14.00,2013-12-27 12:06:00,
2013-12-27 04:07:00,12.6,5.0,30.27,SW,225,0.0,0.0,71,0.00,,SKC,0.00,VWS V14.00,2013-12-27 12:07:00,
2013-12-27 04:08:00,12.6,5.0,30.27,SW,225,0.0,0.0,71,0.00,,SKC,0.00,VWS V14.00,2013-12-27 12:08:00,
2013-12-27 04:11:00,12.4,4.8,30.27,SW,225,0.0,0.0,71,0.00,,SKC,0.00,VWS V14.00,2013-12-27 12:11:00,
2013-12-27 04:12:00,12.4,4.8,30.27,SW,225,0.0,0.0,71,0.00,,SKC,0.00,VWS V14.00,2013-12-27 12:12:00,
2013-12-27 04:13:00,12.4,4.8,30.27,SW,225,0.0,0.0,71,0.00,,SKC,0.00,VWS V14.00,2013-12-27 12:13:00,
2013-12-27 04:14:00,12.4,4.8,30.24,SW,225,0.0,0.0,71,0.00,,SKC,0.00,VWS V14.00,2013-12-27 12:14:00,
2013-12-27 04:16:00,12.2,4.7,30.24,SW,225,0.0,0.0,71,0.00,,SKC,0.00,VWS V14.00,2013-12-27 12:16:00,
2013-12-27 04:17:00,12.1,4.5,30.24,SW,225,0.0,0.0,71,0.00,,SKC,0.00,VWS V14.00,2013-12-27 12:17:00,
2013-12-27 04:18:00,12.1,4.5,30.24,SW,225,0.0,0.0,71,0.00,,SKC,0.00,VWS V14.00,2013-12-27 12:18:00,
2013-12-27 04:19:00,12.1,4.5,30.24,SW,225,0.0,0.0,71,0.00,,SKC,0.00,VWS V14.00,2013-12-27 12:19:00,
2013-12-27 04:21:00,12.1,4.8,30.24,SW,225,0.0,0.0,72,0.00,,SKC,0.00,VWS V14.00,2013-12-27 12:21:00,
2013-12-27 04:22:00,11.9,4.6,30.24,SW,225,0.0,0.0,72,0.00,,SKC,0.00,VWS V14.00,2013-12-27 12:22:00,
2013-12-27 04:23:00,11.9,4.6,30.24,SW,225,0.0,0.0,72,0.00,,SKC,0.00,VWS V14.00,2013-12-27 12:23:00,
2013-12-27 04:24:00,11.9,4.6,30.24,SW,225,0.0,0.0,72,0.00,,SKC,0.00,VWS V14.00,2013-12-27 12:24:00,
2013-12-27 04:25:00,11.7,4.1,30.24,SW,225,0.0,0.0,71,0.00,,SKC,0.00,VWS V14.00,2013-12-27 12:25:00,
2013-12-27 04:26:00,11.7,4.1,30.24,SW,225,0.0,0.0,71,0.00,,SKC,0.00,VWS V14.00,2013-12-27 12:26:00,
2013-12-27 04:27:00,11.7,4.1,30.24,SW,225,0.0,0.0,71,0.00,,SKC,0.00,VWS V14.00,2013-12-27 12:27:00,
2013-12-27 04:28:00,11.7,4.1,30.24,SW,225,0.0,0.0,71,0.00,,SKC,0.00,VWS V14.00,2013-12-27 12:28:00,
2013-12-27 04:29:00,11.7,4.1,30.27,SW,225,0.0,0.0,71,0.00,,SKC,0.00,VWS V14.00,2013-12-27 12:29:00,
2013-12-27 04:30:00,11.7,4.1,30.27,SW,225,0.0,0.0,71,0.00,,SKC,0.00,VWS V14.00,2013-12-27 12:30:00,
2013-12-27 04:32:00,11.7,4.1,30.27,SW,225,0.0,0.0,71,0.00,,SKC,0.00,VWS V14.00,2013-12-27 12:32:00,
2013-12-27 04:33:00,11.9,4.3,30.27,SW,225,0.0,0.0,71,0.00,,SKC,0.00,VWS V14.00,2013-12-27 12:33:00,
2013-12-27 04:34:00,11.9,4.3,30.27,SW,225,0.0,0.0,71,0.00,,SKC,0.00,VWS V14.00,2013-12-27 12:34:00,
2013-12-27 04:35:00,11.9,4.6,30.27,SW,225,0.0,0.0,72,0.00,,SKC,0.00,VWS V14.00,2013-12-27 12:35:00,
2013-12-27 04:37:00,11.9,4.6,30.27,SW,225,0.0,0.0,72,0.00,,SKC,0.00,VWS V14.00,2013-12-27 12:37:00,
2013-12-27 04:38:00,11.9,4.6,30.27,SW,225,0.0,0.0,72,0.00,,SKC,0.00,VWS V14.00,2013-12-27 12:38:00,
2013-12-27 04:39:00,11.9,4.6,30.27,SW,225,0.0,0.0,72,0.00,,SKC,0.00,VWS V14.00,2013-12-27 12:39:00,
2013-12-27 04:41:00,11.9,4.6,30.27,SW,225,0.0,0.0,72,0.00,,SKC,0.00,VWS V14.00,2013-12-27 12:41:00,
2013-12-27 04:42:00,12.1,4.8,30.27,SW,225,0.0,0.0,72,0.00,,SKC,0.00,VWS V14.00,2013-12-27 12:42:00,
2013-12-27 04:43:00,12.1,4.8,30.27,SW,225,0.0,0.0,72,0.00,,SKC,0.00,VWS V14.00,2013-12-27 12:43:00,
2013-12-27 04:44:00,12.2,4.9,30.24,SW,225,0.0,0.0,72,0.00,,SKC,0.00,VWS V14.00,2013-12-27 12:44:00,
2013-12-27 04:46:00,12.2,4.9,30.24,SW,225,0.0,0.0,72,0.00,,SKC,0.00,VWS V14.00,2013-12-27 12:46:00,
2013-12-27 04:47:00,12.2,4.9,30.24,SW,225,0.0,0.0,72,0.00,,SKC,0.00,VWS V14.00,2013-12-27 12:47:00,
2013-12-27 04:48:00,12.4,5.1,30.24,SW,225,0.0,0.0,72,0.00,,SKC,0.00,VWS V14.00,2013-12-27 12:48:00,
2013-12-27 04:49:00,12.4,5.1,30.24,SW,225,0.0,0.0,72,0.00,,SKC,0.00,VWS V14.00,2013-12-27 12:49:00,
2013-12-27 04:51:00,12.4,5.1,30.24,SW,225,0.0,0.0,72,0.00,,SKC,0.00,VWS V14.00,2013-12-27 12:51:00,
2013-12-27 04:52:00,12.4,5.1,30.24,SW,225,0.0,0.0,72,0.00,,SKC,0.00,VWS V14.00,2013-12-27 12:52:00,
2013-12-27 04:53:00,12.4,5.1,30.24,SW,225,0.0,0.0,72,0.00,,SKC,0.00,VWS V14.00,2013-12-27 12:53:00,
2013-12-27 04:54:00,12.4,5.1,30.24,SW,225,0.0,0.0,72,0.00,,SKC,0.00,VWS V14.00,2013-12-27 12:54:00,
2013-12-27 04:56:00,12.6,5.3,30.24,SW,225,0.0,0.0,72,0.00,,SKC,0.00,VWS V14.00,2013-12-27 12:56:00,
2013-12-27 04:57:00,12.6,5.3,30.24,SW,225,0.0,0.0,72,0.00,,SKC,0.00,VWS V14.00,2013-12-27 12:57:00,
2013-12-27 04:58:00,12.6,5.3,30.24,SW,225,0.0,0.0,72,0.00,,SKC,0.00,VWS V14.00,2013-12-27 12:58:00,
2013-12-27 04:59:00,12.6,5.3,30.27,SW,225,0.0,0.0,72,0.00,,SKC,0.00,VWS V14.00,2013-12-27 12:59:00,
2013-12-27 05:01:00,12.6,5.3,30.27,SW,225,0.0,0.0,72,0.00,,SKC,0.00,VWS V14.00,2013-12-27 13:01:00,
2013-12-27 05:02:00,12.6,5.3,30.27,SW,225,0.0,0.0,72,0.00,,SKC,0.00,VWS V14.00,2013-12-27 13:02:00,
2013-12-27 05:03:00,12.8,5.5,30.27,SW,225,0.0,0.0,72,0.00,,SKC,0.00,VWS V14.00,2013-12-27 13:03:00,
2013-12-27 05:04:00,12.8,5.8,30.27,SW,225,0.0,0.0,73,0.00,,SKC,0.00,VWS V14.00,2013-12-27 13:04:00,
2013-12-27 05:05:00,12.8,5.8,30.27,SW,225,0.0,0.0,73,0.00,,SKC,0.00,VWS V14.00,2013-12-27 13:05:00,
2013-12-27 05:06:00,12.8,5.8,30.27,SW,225,0.0,0.0,73,0.00,,SKC,0.00,VWS V14.00,2013-12-27 13:06:00,
2013-12-27 05:07:00,12.8,5.8,30.27,SW,225,0.0,0.0,73,0.00,,SKC,0.00,VWS V14.00,2013-12-27 13:07:00,
2013-12-27 05:09:00,12.8,5.8,30.27,SW,225,0.0,0.0,73,0.00,,SKC,0.00,VWS V14.00,2013-12-27 13:09:00,
2013-12-27 05:10:00,12.8,5.8,30.27,SW,225,0.0,0.0,73,0.00,,SKC,0.00,VWS V14.00,2013-12-27 13:10:00,
2013-12-27 05:11:00,13.1,6.1,30.27,SW,225,0.0,0.0,73,0.00,,SKC,0.00,VWS V14.00,2013-12-27 13:11:00,
2013-12-27 05:12:00,13.1,6.1,30.27,SW,225,0.0,0.0,73,0.00,,SKC,0.00,VWS V14.00,2013-12-27 13:12:00,
2013-12-27 05:14:00,13.1,6.1,30.27,SW,225,0.0,0.0,73,0.00,,SKC,0.00,VWS V14.00,2013-12-27 13:14:00,
2013-12-27 05:15:00,13.3,6.3,30.27,SW,225,0.0,0.0,73,0.00,,SKC,0.00,VWS V14.00,2013-12-27 13:15:00,
2013-12-27 05:16:00,13.1,5.8,30.27,SW,225,0.0,0.0,72,0.00,,SKC,0.00,VWS V14.00,2013-12-27 13:16:00,
2013-12-27 05:17:00,13.1,5.8,30.27,SW,225,0.0,0.0,72,0.00,,SKC,0.00,VWS V14.00,2013-12-27 13:17:00,
2013-12-27 05:19:00,13.1,5.8,30.27,SW,225,0.0,0.0,72,0.00,,SKC,0.00,VWS V14.00,2013-12-27 13:19:00,
2013-12-27 05:20:00,13.1,5.8,30.27,SW,225,0.0,0.0,72,0.00,,SKC,0.00,VWS V14.00,2013-12-27 13:20:00,
2013-12-27 05:22:00,13.1,5.8,30.27,SW,225,0.0,0.0,72,0.00,,SKC,0.00,VWS V14.00,2013-12-27 13:22:00,
2013-12-27 05:24:00,13.1,5.5,30.27,SW,225,0.0,0.0,71,0.00,,SKC,0.00,VWS V14.00,2013-12-27 13:24:00,
2013-12-27 05:25:00,13.1,5.5,30.27,SW,225,0.0,0.0,71,0.00,,SKC,0.00,VWS V14.00,2013-12-27 13:25:00,
2013-12-27 05:27:00,13.1,5.5,30.27,SW,225,0.0,0.0,71,0.00,,SKC,0.00,VWS V14.00,2013-12-27 13:27:00,
2013-12-27 05:29:00,13.1,5.5,30.27,SW,225,0.0,0.0,71,0.00,,SKC,0.00,VWS V14.00,2013-12-27 13:29:00,
2013-12-27 05:30:00,13.1,5.5,30.27,SW,225,0.0,0.0,71,0.00,,SKC,0.00,VWS V14.00,2013-12-27 13:30:00,
2013-12-27 05:32:00,13.1,5.5,30.27,SW,225,0.0,0.0,71,0.00,,SKC,0.00,VWS V14.00,2013-12-27 13:32:00,
2013-12-27 05:35:00,13.1,5.5,30.27,SW,225,0.0,0.0,71,0.00,,SKC,0.00,VWS V14.00,2013-12-27 13:35:00,
2013-12-27 05:37:00,13.3,6.0,30.27,SW,225,0.0,0.0,72,0.00,,SKC,0.00,VWS V14.00,2013-12-27 13:37:00,
2013-12-27 05:39:00,13.3,6.0,30.27,SW,225,0.0,0.0,72,0.00,,SKC,0.00,VWS V14.00,2013-12-27 13:39:00,
2013-12-27 05:40:00,13.3,6.0,30.27,SW,225,0.0,0.0,72,0.00,,SKC,0.00,VWS V14.00,2013-12-27 13:40:00,
2013-12-27 05:42:00,13.3,6.0,30.27,SW,225,0.0,0.0,72,0.00,,SKC,0.00,VWS V14.00,2013-12-27 13:42:00,
2013-12-27 05:43:00,13.3,6.0,30.27,SW,225,0.0,0.0,72,0.00,,SKC,0.00,VWS V14.00,2013-12-27 13:43:00,
2013-12-27 05:45:00,13.1,5.8,30.27,SW,225,0.0,0.0,72,0.00,,SKC,0.00,VWS V14.00,2013-12-27 13:45:00,
2013-12-27 05:47:00,13.1,5.5,30.27,SW,225,0.0,0.0,71,0.00,,SKC,0.00,VWS V14.00,2013-12-27 13:47:00,
2013-12-27 05:48:00,13.1,5.5,30.27,SW,225,0.0,0.0,71,0.00,,SKC,0.00,VWS V14.00,2013-12-27 13:48:00,
2013-12-27 05:50:00,13.1,5.5,30.27,SW,225,0.0,0.0,71,0.00,,SKC,0.00,VWS V14.00,2013-12-27 13:50:00,
2013-12-27 05:51:00,13.1,5.5,30.27,SW,225,0.0,0.0,71,0.00,,SKC,0.00,VWS V14.00,2013-12-27 13:51:00,
2013-12-27 05:53:00,13.1,5.5,30.27,SW,225,0.0,0.0,71,0.00,,SKC,0.00,VWS V14.00,2013-12-27 13:53:00,
2013-12-27 05:55:00,13.1,5.8,30.27,SW,225,0.0,0.0,72,0.00,,SKC,0.00,VWS V14.00,2013-12-27 13:55:00,
2013-12-27 05:56:00,13.1,5.8,30.27,SW,225,0.0,0.0,72,0.00,,SKC,0.00,VWS V14.00,2013-12-27 13:56:00,
2013-12-27 05:58:00,13.1,5.8,30.27,SW,225,0.0,0.0,72,0.00,,SKC,0.00,VWS V14.00,2013-12-27 13:58:00,
2013-12-27 05:59:00,13.1,5.8,30.27,SW,225,0.0,0.0,72,0.00,,SKC,0.00,VWS V14.00,2013-12-27 13:59:00,
2013-12-27 06:00:00,13.1,5.8,30.27,SW,225,0.0,0.0,72,0.00,,SKC,0.00,VWS V14.00,2013-12-27 14:00:00,
2013-12-27 06:01:00,13.1,5.8,30.27,SW,225,0.0,0.0,72,0.00,,SKC,0.00,VWS V14.00,2013-12-27 14:01:00,
2013-12-27 06:03:00,13.1,5.8,30.27,SW,225,0.0,0.0,72,0.00,,SKC,0.00,VWS V14.00,2013-12-27 14:03:00,
2013-12-27 06:04:00,13.1,5.8,30.27,SW,225,0.0,0.0,72,0.00,,SKC,0.00,VWS V14.00,2013-12-27 14:04:00,
2013-12-27 06:05:00,13.1,5.8,30.27,SW,225,0.0,0.0,72,0.00,,SKC,0.00,VWS V14.00,2013-12-27 14:05:00,
2013-12-27 06:06:00,13.1,5.8,30.27,SE,135,1.6,1.6,72,0.00,,SKC,0.00,VWS V14.00,2013-12-27 14:06:00,
2013-12-27 06:09:00,12.8,5.5,30.27,SE,135,0.0,0.0,72,0.00,,SKC,0.00,VWS V14.00,2013-12-27 14:09:00,
2013-12-27 06:10:00,12.8,5.8,30.27,SE,135,0.0,0.0,73,0.00,,SKC,0.00,VWS V14.00,2013-12-27 14:10:00,
2013-12-27 06:11:00,12.8,5.8,30.27,SE,135,0.0,0.0,73,0.00,,SKC,0.00,VWS V14.00,2013-12-27 14:11:00,
2013-12-27 06:12:00,12.8,5.8,30.27,SE,135,0.0,0.0,73,0.00,,SKC,0.00,VWS V14.00,2013-12-27 14:12:00,
2013-12-27 06:14:00,12.8,5.8,30.27,SE,135,0.0,0.0,73,0.00,,SKC,0.00,VWS V14.00,2013-12-27 14:14:00,
2013-12-27 06:15:00,12.6,5.6,30.27,SE,135,0.0,0.0,73,0.00,,SKC,0.00,VWS V14.00,2013-12-27 14:15:00,
2013-12-27 06:16:00,12.6,5.6,30.27,SE,135,0.0,0.0,73,0.00,,SKC,0.00,VWS V14.00,2013-12-27 14:16:00,
2013-12-27 06:17:00,12.6,5.6,30.27,SE,135,0.0,0.0,73,0.00,,SKC,0.00,VWS V14.00,2013-12-27 14:17:00,
2013-12-27 06:19:00,12.8,5.8,30.27,SE,135,0.0,0.0,73,0.00,,SKC,0.00,VWS V14.00,2013-12-27 14:19:00,
2013-12-27 06:20:00,12.8,5.8,30.27,SE,135,0.0,0.0,73,0.00,,SKC,0.00,VWS V14.00,2013-12-27 14:20:00,
2013-12-27 06:21:00,12.8,5.8,30.27,SE,135,0.0,0.0,73,0.00,,SKC,0.00,VWS V14.00,2013-12-27 14:21:00,
2013-12-27 06:22:00,12.8,5.8,30.27,SE,135,0.0,0.0,73,0.00,,SKC,0.00,VWS V14.00,2013-12-27 14:22:00,
2013-12-27 06:24:00,12.8,5.8,30.27,SE,135,0.0,0.0,73,0.00,,SKC,0.00,VWS V14.00,2013-12-27 14:24:00,
2013-12-27 06:25:00,12.8,5.8,30.27,SE,135,0.0,0.0,73,0.00,,SKC,0.00,VWS V14.00,2013-12-27 14:25:00,
2013-12-27 06:26:00,12.8,5.8,30.27,SE,135,0.0,0.0,73,0.00,,SKC,0.00,VWS V14.00,2013-12-27 14:26:00,
2013-12-27 06:27:00,12.8,5.8,30.27,SE,135,0.0,0.0,73,0.00,,SKC,0.00,VWS V14.00,2013-12-27 14:27:00,
2013-12-27 06:29:00,12.8,6.1,30.27,SE,135,0.0,0.0,74,0.00,,SKC,0.00,VWS V14.00,2013-12-27 14:29:00,
2013-12-27 06:30:00,12.8,6.1,30.27,SE,135,0.0,0.0,74,0.00,,SKC,0.00,VWS V14.00,2013-12-27 14:30:00,
2013-12-27 06:31:00,12.8,6.1,30.27,SE,135,0.0,0.0,74,0.00,,SKC,0.00,VWS V14.00,2013-12-27 14:31:00,
2013-12-27 06:32:00,13.0,6.2,30.27,SE,135,0.0,0.0,74,0.00,,SKC,0.00,VWS V14.00,2013-12-27 14:32:00,
2013-12-27 06:35:00,12.8,6.1,30.27,SE,135,0.0,0.0,74,0.00,,SKC,0.00,VWS V14.00,2013-12-27 14:35:00,
2013-12-27 06:36:00,12.8,6.1,30.27,SE,135,0.0,0.0,74,0.00,,SKC,0.00,VWS V14.00,2013-12-27 14:36:00,
2013-12-27 06:37:00,12.8,6.1,30.27,SE,135,0.0,0.0,74,0.00,,SKC,0.00,VWS V14.00,2013-12-27 14:37:00,
2013-12-27 06:38:00,12.8,6.1,30.27,SE,135,0.0,0.0,74,0.00,,SKC,0.00,VWS V14.00,2013-12-27 14:38:00,
2013-12-27 06:40:00,12.8,6.1,30.27,SE,135,0.0,0.0,74,0.00,,SKC,0.00,VWS V14.00,2013-12-27 14:40:00,
2013-12-27 06:41:00,12.8,6.1,30.27,SE,135,0.0,0.0,74,0.00,,SKC,0.00,VWS V14.00,2013-12-27 14:41:00,
2013-12-27 06:42:00,12.8,5.8,30.27,SE,135,0.0,0.0,73,0.00,,SKC,0.00,VWS V14.00,2013-12-27 14:42:00,
2013-12-27 06:43:00,12.8,5.8,30.27,SE,135,0.0,0.0,73,0.00,,SKC,0.00,VWS V14.00,2013-12-27 14:43:00,
2013-12-27 06:45:00,12.8,5.8,30.27,SE,135,0.0,0.0,73,0.00,,SKC,0.00,VWS V14.00,2013-12-27 14:45:00,
2013-12-27 06:46:00,12.8,5.8,30.27,SE,135,0.0,0.0,73,0.00,,SKC,0.00,VWS V14.00,2013-12-27 14:46:00,
2013-12-27 06:47:00,12.8,5.8,30.27,SE,135,0.0,0.0,73,0.00,,SKC,0.00,VWS V14.00,2013-12-27 14:47:00,
2013-12-27 06:48:00,12.8,5.8,30.27,SE,135,0.0,0.0,73,0.00,,SKC,0.00,VWS V14.00,2013-12-27 14:48:00,
2013-12-27 06:50:00,12.8,5.8,30.27,SE,135,0.0,0.0,73,0.00,,SKC,0.00,VWS V14.00,2013-12-27 14:50:00,
2013-12-27 06:51:00,12.8,5.8,30.27,SE,135,0.0,0.0,73,0.00,,SKC,0.00,VWS V14.00,2013-12-27 14:51:00,
2013-12-27 06:52:00,12.8,5.5,30.27,SE,135,0.0,0.0,72,0.00,,SKC,0.00,VWS V14.00,2013-12-27 14:52:00,
2013-12-27 06:54:00,12.8,5.5,30.27,SE,135,0.0,0.0,72,0.00,,SKC,0.00,VWS V14.00,2013-12-27 14:54:00,
2013-12-27 06:55:00,12.8,5.5,30.27,SE,135,0.0,0.0,72,0.00,,SKC,0.00,VWS V14.00,2013-12-27 14:55:00,
2013-12-27 06:56:00,12.8,5.5,30.27,SE,135,0.0,0.0,72,0.00,,SKC,0.00,VWS V14.00,2013-12-27 14:56:00,
2013-12-27 06:58:00,12.8,5.5,30.27,SE,135,0.0,0.0,72,0.00,,SKC,0.00,VWS V14.00,2013-12-27 14:58:00,
2013-12-27 06:59:00,12.8,5.5,30.27,SE,135,0.0,0.0,72,0.00,,SKC,0.00,VWS V14.00,2013-12-27 14:59:00,
2013-12-27 07:00:00,12.8,5.5,30.27,SE,135,0.0,0.0,72,0.00,,SKC,0.00,VWS V14.00,2013-12-27 15:00:00,
2013-12-27 07:01:00,12.8,5.5,30.27,SE,135,0.0,0.0,72,0.00,,SKC,0.00,VWS V14.00,2013-12-27 15:01:00,
2013-12-27 07:03:00,12.8,5.5,30.27,SE,135,0.0,0.0,72,0.00,,SKC,0.00,VWS V14.00,2013-12-27 15:03:00,
2013-12-27 07:04:00,12.8,5.5,30.27,SE,135,0.0,0.0,72,0.00,,SKC,0.00,VWS V14.00,2013-12-27 15:04:00,
2013-12-27 07:05:00,12.8,5.5,30.27,SE,135,0.0,0.0,72,0.00,,SKC,0.00,VWS V14.00,2013-12-27 15:05:00,
2013-12-27 07:06:00,12.8,5.8,30.27,SE,135,0.0,0.0,73,0.00,,SKC,0.00,VWS V14.00,2013-12-27 15:06:00,
2013-12-27 07:07:00,12.8,5.8,30.27,SE,135,0.0,0.0,73,0.00,,SKC,0.00,VWS V14.00,2013-12-27 15:07:00,
2013-12-27 07:08:00,13.0,5.7,30.27,SE,135,0.0,0.0,72,0.00,,SKC,0.00,VWS V14.00,2013-12-27 15:08:00,
2013-12-27 07:09:00,13.0,5.7,30.27,SE,135,0.0,0.0,72,0.00,,SKC,0.00,VWS V14.00,2013-12-27 15:09:00,
2013-12-27 07:10:00,13.1,5.8,30.27,SE,135,0.0,0.0,72,0.00,,SKC,0.00,VWS V14.00,2013-12-27 15:10:00,
2013-12-27 07:11:00,13.1,6.1,30.27,SE,135,0.0,0.0,73,0.00,,SKC,0.00,VWS V14.00,2013-12-27 15:11:00,
2013-12-27 07:12:00,13.1,6.1,30.27,SE,135,0.0,0.0,73,0.00,,SKC,0.00,VWS V14.00,2013-12-27 15:12:00,
2013-12-27 07:13:00,13.1,6.1,30.27,SE,135,0.0,0.0,73,0.00,,SKC,0.00,VWS V14.00,2013-12-27 15:13:00,
2013-12-27 07:14:00,13.1,6.1,30.27,SE,135,0.0,0.0,73,0.00,,SKC,0.00,VWS V14.00,2013-12-27 15:14:00,
2013-12-27 07:15:00,13.1,6.1,30.27,SE,135,0.0,0.0,73,0.00,,SKC,0.00,VWS V14.00,2013-12-27 15:15:00,
2013-12-27 07:17:00,13.1,6.1,30.27,SE,135,0.0,0.0,73,0.00,,SKC,0.00,VWS V14.00,2013-12-27 15:17:00,
2013-12-27 07:18:00,13.1,5.8,30.27,SE,135,0.0,0.0,72,0.00,,SKC,0.00,VWS V14.00,2013-12-27 15:18:00,
2013-12-27 07:19:00,13.1,5.8,30.27,SE,135,0.0,0.0,72,0.00,,SKC,0.00,VWS V14.00,2013-12-27 15:19:00,
2013-12-27 07:20:00,13.1,5.8,30.27,SE,135,0.0,0.0,72,0.00,,SKC,0.00,VWS V14.00,2013-12-27 15:20:00,
2013-12-27 07:22:00,13.1,5.8,30.27,SE,135,0.0,0.0,72,0.00,,SKC,0.00,VWS V14.00,2013-12-27 15:22:00,
2013-12-27 07:23:00,13.1,5.8,30.27,SE,135,0.0,0.0,72,0.00,,SKC,0.00,VWS V14.00,2013-12-27 15:23:00,
2013-12-27 07:24:00,13.1,5.8,30.27,SE,135,0.0,0.0,72,0.00,,SKC,0.00,VWS V14.00,2013-12-27 15:24:00,
2013-12-27 07:26:00,13.1,5.8,30.27,SE,135,0.0,0.0,72,0.00,,SKC,0.00,VWS V14.00,2013-12-27 15:26:00,
2013-12-27 07:27:00,13.1,5.8,30.27,SE,135,0.0,0.0,72,0.00,,SKC,0.00,VWS V14.00,2013-12-27 15:27:00,
2013-12-27 07:28:00,13.1,5.8,30.27,SE,135,0.0,0.0,72,0.00,,SKC,0.00,VWS V14.00,2013-12-27 15:28:00,
2013-12-27 07:29:00,13.1,6.1,30.27,SE,135,0.0,0.0,73,0.00,,SKC,0.00,VWS V14.00,2013-12-27 15:29:00,
2013-12-27 07:31:00,13.3,6.3,30.27,SE,135,0.0,0.0,73,0.00,,SKC,0.00,VWS V14.00,2013-12-27 15:31:00,
2013-12-27 07:32:00,13.3,6.3,30.27,SE,135,0.0,0.0,73,0.00,,SKC,0.00,VWS V14.00,2013-12-27 15:32:00,
2013-12-27 07:33:00,13.3,6.3,30.27,SE,135,0.0,0.0,73,0.00,,SKC,0.00,VWS V14.00,2013-12-27 15:33:00,
2013-12-27 07:34:00,13.3,6.3,30.27,SE,135,0.0,0.0,73,0.00,,SKC,0.00,VWS V14.00,2013-12-27 15:34:00,
2013-12-27 07:35:00,13.3,6.3,30.27,SE,135,0.0,0.0,73,0.00,,SKC,0.00,VWS V14.00,2013-12-27 15:35:00,
2013-12-27 07:36:00,13.3,6.3,30.27,SE,135,0.0,0.0,73,0.00,,SKC,0.00,VWS V14.00,2013-12-27 15:36:00,
2013-12-27 07:37:00,13.3,6.0,30.27,SE,135,0.0,0.0,72,0.00,,SKC,0.00,VWS V14.00,2013-12-27 15:37:00,
2013-12-27 07:38:00,13.3,6.0,30.27,SE,135,0.0,0.0,72,0.00,,SKC,0.00,VWS V14.00,2013-12-27 15:38:00,
2013-12-27 07:39:00,13.3,6.0,30.27,SE,135,0.0,0.0,72,0.00,,SKC,0.00,VWS V14.00,2013-12-27 15:39:00,
2013-12-27 07:40:00,13.3,6.0,30.27,SE,135,0.0,0.0,72,0.00,,SKC,0.00,VWS V14.00,2013-12-27 15:40:00,
2013-12-27 07:41:00,13.3,6.0,30.27,SE,135,0.0,0.0,72,0.00,,SKC,0.00,VWS V14.00,2013-12-27 15:41:00,
2013-12-27 07:42:00,13.5,6.2,30.27,SE,135,0.0,0.0,72,0.00,,SKC,0.00,VWS V14.00,2013-12-27 15:42:00,
2013-12-27 07:43:00,13.5,6.2,30.27,SE,135,0.0,0.0,72,0.00,,SKC,0.00,VWS V14.00,2013-12-27 15:43:00,
2013-12-27 07:44:00,13.5,6.2,30.27,SE,135,0.0,0.0,72,0.00,,SKC,0.00,VWS V14.00,2013-12-27 15:44:00,
2013-12-27 07:45:00,13.5,6.2,30.27,SE,135,0.0,0.0,72,0.00,,SKC,0.00,VWS V14.00,2013-12-27 15:45:00,
2013-12-27 07:46:00,13.5,6.2,30.27,SE,135,0.0,0.0,72,0.00,,SKC,0.00,VWS V14.00,2013-12-27 15:46:00,
2013-12-27 07:47:00,13.7,6.3,30.27,SE,135,0.0,0.0,72,0.00,,SKC,0.00,VWS V14.00,2013-12-27 15:47:00,
2013-12-27 07:48:00,13.7,6.3,30.27,SE,135,0.0,0.0,72,0.00,,SKC,0.00,VWS V14.00,2013-12-27 15:48:00,
2013-12-27 07:49:00,13.7,6.3,30.27,SE,135,0.0,0.0,72,0.00,,SKC,0.00,VWS V14.00,2013-12-27 15:49:00,
2013-12-27 07:50:00,13.9,6.5,30.27,SE,135,0.0,0.0,72,0.00,,SKC,0.00,VWS V14.00,2013-12-27 15:50:00,
2013-12-27 07:51:00,14.0,6.7,30.27,SE,135,0.0,0.0,72,0.00,,SKC,0.00,VWS V14.00,2013-12-27 15:51:00,
2013-12-27 07:52:00,14.0,7.0,30.27,SE,135,0.0,0.0,73,0.00,,SKC,0.00,VWS V14.00,2013-12-27 15:52:00,
2013-12-27 07:53:00,14.0,7.0,30.27,SE,135,0.0,0.0,73,0.00,,SKC,0.00,VWS V14.00,2013-12-27 15:53:00,
2013-12-27 07:54:00,14.2,7.2,30.27,SE,135,0.0,0.0,73,0.00,,SKC,0.00,VWS V14.00,2013-12-27 15:54:00,
2013-12-27 07:56:00,14.2,7.2,30.27,WSW,248,0.0,0.0,73,0.00,,SKC,0.00,VWS V14.00,2013-12-27 15:56:00,
2013-12-27 07:58:00,14.4,7.3,30.27,WSW,248,1.1,1.1,73,0.00,,SKC,0.00,VWS V14.00,2013-12-27 15:58:00,
2013-12-27 07:59:00,14.6,7.2,30.27,WSW,248,0.0,0.0,72,0.00,,SKC,0.00,VWS V14.00,2013-12-27 15:59:00,
2013-12-27 08:01:00,14.8,7.4,30.27,WSW,248,0.0,0.0,72,0.00,,SKC,0.00,VWS V14.00,2013-12-27 16:01:00,
2013-12-27 08:03:00,14.8,7.4,30.27,WSW,248,0.0,0.0,72,0.00,,SKC,0.00,VWS V14.00,2013-12-27 16:03:00,
2013-12-27 08:04:00,14.9,7.6,30.27,WSW,248,0.0,0.0,72,0.00,,SKC,0.00,VWS V14.00,2013-12-27 16:04:00,
2013-12-27 08:06:00,15.3,8.2,30.27,WSW,248,0.0,0.0,73,0.00,,SKC,0.00,VWS V14.00,2013-12-27 16:06:00,
2013-12-27 08:08:00,15.3,8.2,30.27,WSW,248,0.0,0.0,73,0.00,,SKC,0.00,VWS V14.00,2013-12-27 16:08:00,
2013-12-27 08:09:00,15.5,8.4,30.27,WSW,248,0.0,0.0,73,0.00,,SKC,0.00,VWS V14.00,2013-12-27 16:09:00,
2013-12-27 08:10:00,15.5,8.4,30.27,WSW,248,0.0,0.0,73,0.00,,SKC,0.00,VWS V14.00,2013-12-27 16:10:00,
2013-12-27 08:11:00,15.8,8.7,30.27,WSW,248,0.0,0.0,73,0.00,,SKC,0.00,VWS V14.00,2013-12-27 16:11:00,
2013-12-27 08:13:00,16.0,8.9,30.27,WSW,248,0.0,0.0,73,0.00,,SKC,0.00,VWS V14.00,2013-12-27 16:13:00,
2013-12-27 08:14:00,16.0,8.9,30.27,WSW,248,0.0,0.0,73,0.00,,SKC,0.00,VWS V14.00,2013-12-27 16:14:00,
2013-12-27 08:16:00,16.0,8.9,30.27,WSW,248,1.1,1.1,73,0.00,,SKC,0.00,VWS V14.00,2013-12-27 16:16:00,
2013-12-27 08:18:00,16.2,9.1,30.27,WSW,248,0.0,0.0,73,0.00,,SKC,0.00,VWS V14.00,2013-12-27 16:18:00,
2013-12-27 08:19:00,16.2,9.1,30.27,WSW,248,0.0,0.0,73,0.00,,SKC,0.00,VWS V14.00,2013-12-27 16:19:00,
2013-12-27 08:20:00,16.2,9.1,30.27,WSW,248,0.0,0.0,73,0.00,,SKC,0.00,VWS V14.00,2013-12-27 16:20:00,
2013-12-27 08:21:00,16.2,9.1,30.27,WSW,248,0.0,0.0,73,0.00,,SKC,0.00,VWS V14.00,2013-12-27 16:21:00,
2013-12-27 08:22:00,16.2,9.1,30.27,WSW,248,0.0,0.0,73,0.00,,SKC,0.00,VWS V14.00,2013-12-27 16:22:00,
2013-12-27 08:23:00,16.7,9.6,30.27,WSW,248,0.0,0.0,73,0.00,,SKC,0.00,VWS V14.00,2013-12-27 16:23:00,
2013-12-27 08:24:00,17.1,9.9,30.27,WSW,248,0.0,0.0,73,0.00,,SKC,0.00,VWS V14.00,2013-12-27 16:24:00,
2013-12-27 08:25:00,17.5,10.6,30.27,WSW,248,0.0,0.0,74,0.00,,SKC,0.00,VWS V14.00,2013-12-27 16:25:00,
2013-12-27 08:26:00,17.6,10.8,30.27,WSW,248,0.0,0.0,74,0.00,,SKC,0.00,VWS V14.00,2013-12-27 16:26:00,
2013-12-27 08:27:00,17.8,11.2,30.27,WSW,248,0.0,0.0,75,0.00,,SKC,0.00,VWS V14.00,2013-12-27 16:27:00,
2013-12-27 08:28:00,17.8,11.2,30.27,WSW,248,0.0,0.0,75,0.00,,SKC,0.00,VWS V14.00,2013-12-27 16:28:00,
2013-12-27 08:29:00,17.8,11.2,30.27,WSW,248,0.0,0.0,75,0.00,,SKC,0.00,VWS V14.00,2013-12-27 16:29:00,
2013-12-27 08:30:00,18.2,11.3,30.27,WSW,248,0.0,0.0,74,0.00,,SKC,0.00,VWS V14.00,2013-12-27 16:30:00,
2013-12-27 08:31:00,18.4,11.5,30.27,WSW,248,0.0,0.0,74,0.00,,SKC,0.00,VWS V14.00,2013-12-27 16:31:00,
2013-12-27 08:32:00,18.5,11.9,30.27,WSW,248,0.0,0.0,75,0.00,,SKC,0.00,VWS V14.00,2013-12-27 16:32:00,
2013-12-27 08:34:00,18.5,11.6,30.27,WSW,248,0.0,0.0,74,0.00,,SKC,0.00,VWS V14.00,2013-12-27 16:34:00,
2013-12-27 08:35:00,18.7,11.8,30.27,WSW,248,0.0,0.0,74,0.00,,SKC,0.00,VWS V14.00,2013-12-27 16:35:00,
2013-12-27 08:36:00,18.7,11.8,30.27,WSW,248,0.0,0.0,74,0.00,,SKC,0.00,VWS V14.00,2013-12-27 16:36:00,
2013-12-27 08:37:00,18.9,12.0,30.27,WSW,248,0.0,0.0,74,0.00,,SKC,0.00,VWS V14.00,2013-12-27 16:37:00,
2013-12-27 08:39:00,18.7,11.8,30.27,WSW,248,0.0,0.0,74,0.00,,SKC,0.00,VWS V14.00,2013-12-27 16:39:00,
2013-12-27 08:40:00,18.7,11.8,30.27,SW,225,0.0,0.0,74,0.00,,SKC,0.00,VWS V14.00,2013-12-27 16:40:00,
2013-12-27 08:41:00,18.7,11.8,30.27,SW,225,0.0,0.0,74,0.00,,SKC,0.00,VWS V14.00,2013-12-27 16:41:00,
2013-12-27 08:42:00,18.7,11.8,30.27,SW,225,0.0,0.0,74,0.00,,SKC,0.00,VWS V14.00,2013-12-27 16:42:00,
2013-12-27 08:45:00,19.8,13.2,30.27,SW,225,0.0,0.0,75,0.00,,SKC,0.00,VWS V14.00,2013-12-27 16:45:00,
2013-12-27 08:47:00,19.8,13.2,30.27,SW,225,0.0,0.0,75,0.00,,SKC,0.00,VWS V14.00,2013-12-27 16:47:00,
2013-12-27 08:50:00,20.5,13.9,30.27,SW,225,1.1,1.1,75,0.00,,SKC,0.00,VWS V14.00,2013-12-27 16:50:00,
2013-12-27 08:51:00,20.3,13.7,30.27,SW,225,1.3,1.3,75,0.00,,SKC,0.00,VWS V14.00,2013-12-27 16:51:00,
2013-12-27 08:52:00,20.3,13.7,30.27,SW,225,0.0,0.0,75,0.00,,SKC,0.00,VWS V14.00,2013-12-27 16:52:00,
2013-12-27 08:53:00,20.5,13.9,30.27,SW,225,0.0,0.0,75,0.00,,SKC,0.00,VWS V14.00,2013-12-27 16:53:00,
2013-12-27 08:55:00,20.5,13.6,30.27,SW,225,0.0,0.0,74,0.00,,SKC,0.00,VWS V14.00,2013-12-27 16:55:00,
2013-12-27 08:56:00,20.5,13.6,30.27,SW,225,0.0,0.0,74,0.00,,SKC,0.00,VWS V14.00,2013-12-27 16:56:00,
2013-12-27 08:57:00,20.5,13.6,30.27,SW,225,0.0,0.0,74,0.00,,SKC,0.00,VWS V14.00,2013-12-27 16:57:00,
2013-12-27 08:58:00,20.5,13.6,30.27,SW,225,0.0,0.0,74,0.00,,SKC,0.00,VWS V14.00,2013-12-27 16:58:00,
2013-12-27 09:00:00,20.9,13.9,30.27,SW,225,0.0,0.0,74,0.00,,SKC,0.00,VWS V14.00,2013-12-27 17:00:00,
2013-12-27 09:01:00,21.1,14.1,30.27,SW,225,0.0,0.0,74,0.00,,SKC,0.00,VWS V14.00,2013-12-27 17:01:00,
2013-12-27 09:02:00,21.1,14.1,30.27,SW,225,0.0,0.0,74,0.00,,SKC,0.00,VWS V14.00,2013-12-27 17:02:00,
2013-12-27 09:03:00,20.9,13.6,30.27,SW,225,0.0,0.0,73,0.00,,SKC,0.00,VWS V14.00,2013-12-27 17:03:00,
2013-12-27 09:05:00,20.9,13.6,30.27,SW,225,0.0,0.0,73,0.00,,SKC,0.00,VWS V14.00,2013-12-27 17:05:00,
2013-12-27 09:06:00,20.7,13.1,30.27,SW,225,0.0,0.0,72,0.00,,SKC,0.00,VWS V14.00,2013-12-27 17:06:00,
2013-12-27 09:07:00,20.5,12.9,30.27,SW,225,0.0,0.0,72,0.00,,SKC,0.00,VWS V14.00,2013-12-27 17:07:00,
2013-12-27 09:08:00,20.5,12.9,30.27,SW,225,0.0,0.0,72,0.00,,SKC,0.00,VWS V14.00,2013-12-27 17:08:00,
2013-12-27 09:10:00,20.9,13.3,30.27,SW,225,0.0,0.0,72,0.00,,SKC,0.00,VWS V14.00,2013-12-27 17:10:00,
2013-12-27 09:11:00,21.1,13.8,30.27,SW,225,0.0,0.0,73,0.00,,SKC,0.00,VWS V14.00,2013-12-27 17:11:00,
2013-12-27 09:12:00,21.2,13.9,30.27,SW,225,0.0,0.0,73,0.00,,SKC,0.00,VWS V14.00,2013-12-27 17:12:00,
2013-12-27 09:13:00,21.4,14.4,30.27,SW,225,0.0,0.0,74,0.00,,SKC,0.00,VWS V14.00,2013-12-27 17:13:00,
2013-12-27 09:15:00,21.4,14.4,30.27,SW,225,0.0,0.0,74,0.00,,SKC,0.00,VWS V14.00,2013-12-27 17:15:00,
2013-12-27 09:16:00,21.8,14.8,30.27,SW,225,0.0,0.0,74,0.00,,SKC,0.00,VWS V14.00,2013-12-27 17:16:00,
2013-12-27 09:17:00,22.0,15.0,30.27,SW,225,0.0,0.0,74,0.00,,SKC,0.00,VWS V14.00,2013-12-27 17:17:00,
2013-12-27 09:18:00,22.7,16.0,30.27,SW,225,0.0,0.0,75,0.00,,SKC,0.00,VWS V14.00,2013-12-27 17:18:00,
2013-12-27 09:19:00,22.7,16.0,30.27,SW,225,0.0,0.0,75,0.00,,SKC,0.00,VWS V14.00,2013-12-27 17:19:00,
2013-12-27 09:20:00,23.6,17.1,30.27,SW,225,0.0,0.0,76,0.00,,SKC,0.00,VWS V14.00,2013-12-27 17:20:00,
2013-12-27 09:21:00,23.6,17.1,30.27,SW,225,0.0,0.0,76,0.00,,SKC,0.00,VWS V14.00,2013-12-27 17:21:00,
2013-12-27 09:22:00,24.1,17.7,30.27,SW,225,0.0,0.0,76,0.00,,SKC,0.00,VWS V14.00,2013-12-27 17:22:00,
2013-12-27 09:23:00,23.8,17.3,30.27,SW,225,0.0,0.0,76,0.00,,SKC,0.00,VWS V14.00,2013-12-27 17:23:00,
2013-12-27 09:24:00,23.9,17.2,30.27,SW,225,0.0,0.0,75,0.00,,SKC,0.00,VWS V14.00,2013-12-27 17:24:00,
2013-12-27 09:25:00,23.9,17.2,30.27,SW,225,0.0,0.0,75,0.00,,SKC,0.00,VWS V14.00,2013-12-27 17:25:00,
2013-12-27 09:26:00,24.5,17.7,30.27,SW,225,0.0,0.0,75,0.00,,SKC,0.00,VWS V14.00,2013-12-27 17:26:00,
2013-12-27 09:28:00,24.7,17.9,30.27,SW,225,0.0,0.0,75,0.00,,SKC,0.00,VWS V14.00,2013-12-27 17:28:00,
2013-12-27 09:29:00,24.5,17.7,30.27,SW,225,0.0,0.0,75,0.00,,SKC,0.00,VWS V14.00,2013-12-27 17:29:00,
2013-12-27 09:30:00,24.5,17.7,30.27,SW,225,0.0,0.0,75,0.00,,SKC,0.00,VWS V14.00,2013-12-27 17:30:00,
2013-12-27 09:31:00,24.3,17.5,30.27,SW,225,0.0,0.0,75,0.00,,SKC,0.00,VWS V14.00,2013-12-27 17:31:00,
2013-12-27 09:33:00,24.3,17.5,30.27,SW,225,0.0,0.0,75,0.00,,SKC,0.00,VWS V14.00,2013-12-27 17:33:00,
2013-12-27 09:34:00,24.7,17.9,30.27,SW,225,0.0,0.0,75,0.00,,SKC,0.00,VWS V14.00,2013-12-27 17:34:00,
2013-12-27 09:35:00,25.2,18.7,30.27,SW,225,0.0,0.0,76,0.00,,SKC,0.00,VWS V14.00,2013-12-27 17:35:00,
2013-12-27 09:36:00,25.7,19.2,30.27,SW,225,0.0,0.0,76,0.00,,SKC,0.00,VWS V14.00,2013-12-27 17:36:00,
2013-12-27 09:38:00,25.9,19.4,30.27,SW,225,1.1,1.1,76,0.00,,SKC,0.00,VWS V14.00,2013-12-27 17:38:00,
2013-12-27 09:39:00,26.5,19.9,30.27,SW,225,0.0,0.0,76,0.00,,SKC,0.00,VWS V14.00,2013-12-27 17:39:00,
2013-12-27 09:40:00,27.0,20.5,30.27,SW,225,0.0,0.0,76,0.00,,SKC,0.00,VWS V14.00,2013-12-27 17:40:00,
2013-12-27 09:41:00,27.2,20.6,30.27,SW,225,0.0,0.0,76,0.00,,SKC,0.00,VWS V14.00,2013-12-27 17:41:00,
2013-12-27 09:43:00,27.4,20.5,30.27,SW,225,0.0,0.0,75,0.00,,SKC,0.00,VWS V14.00,2013-12-27 17:43:00,
2013-12-27 09:44:00,27.7,20.8,30.27,SW,225,0.0,0.0,75,0.00,,SKC,0.00,VWS V14.00,2013-12-27 17:44:00,
2013-12-27 09:45:00,28.1,20.9,30.27,SW,225,0.0,0.0,74,0.00,,SKC,0.00,VWS V14.00,2013-12-27 17:45:00,
2013-12-27 09:47:00,28.4,20.9,30.27,SW,225,0.0,0.0,73,0.00,,SKC,0.00,VWS V14.00,2013-12-27 17:47:00,
2013-12-27 09:48:00,28.6,21.1,30.27,SW,225,0.0,0.0,73,0.00,,SKC,0.00,VWS V14.00,2013-12-27 17:48:00,
2013-12-27 09:49:00,28.8,20.9,30.27,SW,225,0.0,0.0,72,0.00,,SKC,0.00,VWS V14.00,2013-12-27 17:49:00,
2013-12-27 09:50:00,29.0,21.4,30.27,SW,225,0.0,0.0,73,0.00,,SKC,0.00,VWS V14.00,2013-12-27 17:50:00,
2013-12-27 09:52:00,29.0,21.4,30.27,SW,225,0.0,0.0,73,0.00,,SKC,0.00,VWS V14.00,2013-12-27 17:52:00,
2013-12-27 09:53:00,29.0,21.8,30.27,SW,225,0.0,0.0,74,0.00,,SKC,0.00,VWS V14.00,2013-12-27 17:53:00,
2013-12-27 09:54:00,28.8,21.6,30.27,SW,225,0.0,0.0,74,0.00,,SKC,0.00,VWS V14.00,2013-12-27 17:54:00,
2013-12-27 09:55:00,28.8,21.2,30.27,SW,225,0.9,0.9,73,0.00,,SKC,0.00,VWS V14.00,2013-12-27 17:55:00,
2013-12-27 09:57:00,29.0,21.4,30.27,SW,225,0.0,0.0,73,0.00,,SKC,0.00,VWS V14.00,2013-12-27 17:57:00,
2013-12-27 09:58:00,29.0,21.1,30.27,SW,225,0.0,0.0,72,0.00,,SKC,0.00,VWS V14.00,2013-12-27 17:58:00,
2013-12-27 09:59:00,29.3,21.1,30.27,SW,225,0.0,0.0,71,0.00,,SKC,0.00,VWS V14.00,2013-12-27 17:59:00,
2013-12-27 10:00:00,29.7,21.5,30.27,SW,225,0.0,0.0,71,0.00,,SKC,0.00,VWS V14.00,2013-12-27 18:00:00,
2013-12-27 10:01:00,30.1,21.8,30.27,NW,315,0.0,0.0,71,0.00,,SKC,0.00,VWS V14.00,2013-12-27 18:01:00,
2013-12-27 10:02:00,30.4,22.2,30.27,NW,315,0.0,0.0,71,0.00,,SKC,0.00,VWS V14.00,2013-12-27 18:02:00,
2013-12-27 10:03:00,30.8,22.2,30.27,NW,315,0.0,0.0,70,0.00,,SKC,0.00,VWS V14.00,2013-12-27 18:03:00,
2013-12-27 10:04:00,30.8,22.2,30.27,NW,315,0.0,0.0,70,0.00,,SKC,0.00,VWS V14.00,2013-12-27 18:04:00,
2013-12-27 10:05:00,30.8,22.2,30.27,NW,315,0.0,0.0,70,0.00,,SKC,0.00,VWS V14.00,2013-12-27 18:05:00,
2013-12-27 10:06:00,30.8,22.2,30.27,NW,315,0.0,0.0,70,0.00,,SKC,0.00,VWS V14.00,2013-12-27 18:06:00,
2013-12-27 10:07:00,30.8,22.2,30.27,NW,315,1.3,1.3,70,0.00,,SKC,0.00,VWS V14.00,2013-12-27 18:07:00,
2013-12-27 10:08:00,30.8,22.2,30.27,NW,315,0.0,0.0,70,0.00,,SKC,0.00,VWS V14.00,2013-12-27 18:08:00,
2013-12-27 10:09:00,30.8,22.2,30.27,NW,315,0.0,0.0,70,0.00,,SKC,0.00,VWS V14.00,2013-12-27 18:09:00,
2013-12-27 10:10:00,30.8,22.2,30.27,NW,315,0.0,0.0,70,0.00,,SKC,0.00,VWS V14.00,2013-12-27 18:10:00,
2013-12-27 10:11:00,32.6,21.8,30.27,NW,315,0.0,0.0,64,0.00,,SKC,0.00,VWS V14.00,2013-12-27 18:11:00,
2013-12-27 10:12:00,32.4,21.6,30.27,NW,315,0.0,0.0,64,0.00,,SKC,0.00,VWS V14.00,2013-12-27 18:12:00,
2013-12-27 10:13:00,32.4,21.6,30.27,NW,315,0.0,0.0,64,0.00,,SKC,0.00,VWS V14.00,2013-12-27 18:13:00,
2013-12-27 10:15:00,32.9,19.8,30.24,NW,315,0.0,0.0,58,0.00,,SKC,0.00,VWS V14.00,2013-12-27 18:15:00,
2013-12-27 10:16:00,33.1,19.6,30.24,NW,315,0.0,0.0,57,0.00,,SKC,0.00,VWS V14.00,2013-12-27 18:16:00,
2013-12-27 10:18:00,33.5,19.5,30.24,NW,315,0.0,0.0,56,0.00,,SKC,0.00,VWS V14.00,2013-12-27 18:18:00,
2013-12-27 10:20:00,33.7,19.6,30.24,NW,315,0.0,0.0,56,0.00,,SKC,0.00,VWS V14.00,2013-12-27 18:20:00,
2013-12-27 10:21:00,33.7,19.6,30.24,NW,315,0.0,0.0,56,0.00,,SKC,0.00,VWS V14.00,2013-12-27 18:21:00,
2013-12-27 10:23:00,34.7,21.9,30.24,NW,315,0.0,0.0,59,0.00,,SKC,0.00,VWS V14.00,2013-12-27 18:23:00,
2013-12-27 10:25:00,35.1,21.4,30.24,NW,315,0.0,0.0,57,0.00,,SKC,0.00,VWS V14.00,2013-12-27 18:25:00,
2013-12-27 10:26:00,35.1,21.4,30.24,NW,315,0.0,0.0,57,0.00,,SKC,0.00,VWS V14.00,2013-12-27 18:26:00,
2013-12-27 10:27:00,35.8,20.8,30.24,NNW,338,0.0,0.0,54,0.00,,SKC,0.00,VWS V14.00,2013-12-27 18:27:00,
2013-12-27 10:28:00,36.2,21.1,30.24,NNW,338,0.0,0.0,54,0.00,,SKC,0.00,VWS V14.00,2013-12-27 18:28:00,
2013-12-27 10:31:00,36.7,21.2,30.24,NNW,338,0.0,0.0,53,0.00,,SKC,0.00,VWS V14.00,2013-12-27 18:31:00,
2013-12-27 10:32:00,37.3,21.7,30.24,NNW,338,0.0,0.0,53,0.00,,SKC,0.00,VWS V14.00,2013-12-27 18:32:00,
2013-12-27 10:33:00,37.4,21.9,30.24,NNW,338,0.0,0.0,53,0.00,,SKC,0.00,VWS V14.00,2013-12-27 18:33:00,
2013-12-27 10:34:00,37.4,21.9,30.24,NNW,338,0.0,0.0,53,0.00,,SKC,0.00,VWS V14.00,2013-12-27 18:34:00,
2013-12-27 10:36:00,36.7,21.6,30.24,South,180,0.0,0.0,54,0.00,,SKC,0.00,VWS V14.00,2013-12-27 18:36:00,
2013-12-27 10:37:00,36.5,20.6,30.24,South,180,0.0,0.0,52,0.00,,SKC,0.00,VWS V14.00,2013-12-27 18:37:00,
2013-12-27 10:38:00,36.9,20.5,30.24,South,180,0.0,0.0,51,0.00,,SKC,0.00,VWS V14.00,2013-12-27 18:38:00,
2013-12-27 10:39:00,36.9,20.9,30.24,South,180,0.0,0.0,52,0.00,,SKC,0.00,VWS V14.00,2013-12-27 18:39:00,
2013-12-27 10:41:00,36.9,20.9,30.24,South,180,0.0,0.0,52,0.00,,SKC,0.00,VWS V14.00,2013-12-27 18:41:00,
2013-12-27 10:42:00,36.7,20.3,30.24,South,180,0.0,0.0,51,0.00,,SKC,0.00,VWS V14.00,2013-12-27 18:42:00,
2013-12-27 10:43:00,36.9,20.0,30.24,South,180,0.0,0.0,50,0.00,,SKC,0.00,VWS V14.00,2013-12-27 18:43:00,
2013-12-27 10:44:00,36.9,19.5,30.24,SSE,158,0.0,0.0,49,0.00,,SKC,0.00,VWS V14.00,2013-12-27 18:44:00,
2013-12-27 10:46:00,36.7,17.4,30.24,SSE,158,0.0,0.0,45,0.00,,SKC,0.00,VWS V14.00,2013-12-27 18:46:00,
2013-12-27 10:47:00,36.7,18.4,30.24,SE,135,0.9,0.9,47,0.00,,SKC,0.00,VWS V14.00,2013-12-27 18:47:00,
2013-12-27 10:48:00,36.9,19.1,30.24,SE,135,2.0,2.0,48,0.00,,SKC,0.00,VWS V14.00,2013-12-27 18:48:00,
2013-12-27 10:49:00,36.7,17.9,30.24,SE,135,0.0,0.0,46,0.00,,SKC,0.00,VWS V14.00,2013-12-27 18:49:00,
2013-12-27 10:51:00,36.5,18.7,30.24,SE,135,0.0,0.0,48,0.00,,SKC,0.00,VWS V14.00,2013-12-27 18:51:00,
2013-12-27 10:52:00,36.4,18.1,30.24,SE,135,0.0,0.0,47,0.00,,SKC,0.00,VWS V14.00,2013-12-27 18:52:00,
2013-12-27 10:53:00,36.5,17.7,30.24,SE,135,0.0,0.0,46,0.00,,SKC,0.00,VWS V14.00,2013-12-27 18:53:00,
2013-12-27 10:54:00,36.5,17.7,30.24,SE,135,0.0,0.0,46,0.00,,SKC,0.00,VWS V14.00,2013-12-27 18:54:00,
2013-12-27 10:56:00,36.7,17.4,30.24,SE,135,0.0,0.0,45,0.00,,SKC,0.00,VWS V14.00,2013-12-27 18:56:00,
2013-12-27 10:57:00,36.5,16.7,30.24,South,180,0.0,0.0,44,0.00,,SKC,0.00,VWS V14.00,2013-12-27 18:57:00,
2013-12-27 10:58:00,36.4,16.0,30.24,ESE,112,0.0,0.0,43,0.00,,SKC,0.00,VWS V14.00,2013-12-27 18:58:00,
2013-12-27 10:59:00,36.4,16.0,30.24,ESE,112,0.0,0.0,43,0.00,,SKC,0.00,VWS V14.00,2013-12-27 18:59:00,
2013-12-27 11:01:00,36.2,15.9,30.24,East,90,1.6,1.6,43,0.00,,SKC,0.00,VWS V14.00,2013-12-27 19:01:00,
2013-12-27 11:02:00,36.2,15.9,30.24,East,90,0.0,0.0,43,0.00,,SKC,0.00,VWS V14.00,2013-12-27 19:02:00,
2013-12-27 11:03:00,36.4,16.5,30.24,ENE,68,0.0,0.0,44,0.00,,SKC,0.00,VWS V14.00,2013-12-27 19:03:00,
2013-12-27 11:04:00,36.7,16.9,30.24,ENE,68,0.0,0.0,44,0.00,,SKC,0.00,VWS V14.00,2013-12-27 19:04:00,
2013-12-27 11:05:00,36.9,17.0,30.24,ESE,112,0.0,0.0,44,0.00,,SKC,0.00,VWS V14.00,2013-12-27 19:05:00,
2013-12-27 11:06:00,36.7,16.3,30.24,SE,135,0.0,0.0,43,0.00,,SKC,0.00,VWS V14.00,2013-12-27 19:06:00,
2013-12-27 11:07:00,36.5,16.2,30.24,SE,135,2.2,2.2,43,0.00,,SKC,0.00,VWS V14.00,2013-12-27 19:07:00,
2013-12-27 11:09:00,36.4,15.5,30.24,South,180,0.0,0.0,42,0.00,,SKC,0.00,VWS V14.00,2013-12-27 19:09:00,
2013-12-27 11:10:00,36.2,15.9,30.24,South,180,0.0,0.0,43,0.00,,SKC,0.00,VWS V14.00,2013-12-27 19:10:00,
2013-12-27 11:12:00,37.6,18.2,30.24,South,180,0.0,0.0,45,0.00,,SKC,0.00,VWS V14.00,2013-12-27 19:12:00,
2013-12-27 11:13:00,38.2,18.2,30.24,South,180,0.0,0.0,44,0.00,,SKC,0.00,VWS V14.00,2013-12-27 19:13:00,
2013-12-27 11:14:00,38.3,18.4,30.24,South,180,0.0,0.0,44,0.00,,SKC,0.00,VWS V14.00,2013-12-27 19:14:00,
2013-12-27 11:15:00,38.3,17.8,30.24,South,180,0.0,0.0,43,0.00,,SKC,0.00,VWS V14.00,2013-12-27 19:15:00,
2013-12-27 11:17:00,38.5,17.4,30.24,South,180,0.0,0.0,42,0.00,,SKC,0.00,VWS V14.00,2013-12-27 19:17:00,
2013-12-27 11:18:00,38.5,17.4,30.24,South,180,0.0,0.0,42,0.00,,SKC,0.00,VWS V14.00,2013-12-27 19:18:00,
2013-12-27 11:19:00,38.7,17.6,30.24,South,180,0.0,0.0,42,0.00,,SKC,0.00,VWS V14.00,2013-12-27 19:19:00,
2013-12-27 11:20:00,38.7,17.6,30.24,South,180,0.9,0.9,42,0.00,,SKC,0.00,VWS V14.00,2013-12-27 19:20:00,
2013-12-27 11:22:00,38.5,17.4,30.24,South,180,0.0,0.0,42,0.00,,SKC,0.00,VWS V14.00,2013-12-27 19:22:00,
2013-12-27 11:23:00,38.3,17.8,30.24,South,180,0.0,0.0,43,0.00,,SKC,0.00,VWS V14.00,2013-12-27 19:23:00,
2013-12-27 11:24:00,38.3,17.8,30.24,SE,135,0.0,0.0,43,0.00,,SKC,0.00,VWS V14.00,2013-12-27 19:24:00,
2013-12-27 11:25:00,37.6,16.6,30.24,South,180,1.3,1.3,42,0.00,,SKC,0.00,VWS V14.00,2013-12-27 19:25:00,
2013-12-27 11:27:00,37.3,16.3,30.24,South,180,0.0,0.0,42,0.00,,SKC,0.00,VWS V14.00,2013-12-27 19:27:00,
2013-12-27 11:28:00,37.6,16.6,30.24,South,180,0.0,0.0,42,0.00,,SKC,0.00,VWS V14.00,2013-12-27 19:28:00,
2013-12-27 11:29:00,37.4,16.5,30.24,SE,135,0.0,0.0,42,0.00,,SKC,0.00,VWS V14.00,2013-12-27 19:29:00,
2013-12-27 11:30:00,37.6,16.6,30.24,SE,135,0.0,0.0,42,0.00,,SKC,0.00,VWS V14.00,2013-12-27 19:30:00,
2013-12-27 11:31:00,37.6,16.6,30.24,East,90,0.0,0.0,42,0.00,,SKC,0.00,VWS V14.00,2013-12-27 19:31:00,
2013-12-27 11:32:00,38.3,16.7,30.24,East,90,0.0,0.0,41,0.00,,SKC,0.00,VWS V14.00,2013-12-27 19:32:00,
2013-12-27 11:33:00,38.5,16.9,30.24,East,90,0.0,0.0,41,0.00,,SKC,0.00,VWS V14.00,2013-12-27 19:33:00,
2013-12-27 11:34:00,38.9,17.2,30.24,East,90,0.0,0.0,41,0.00,,SKC,0.00,VWS V14.00,2013-12-27 19:34:00,
2013-12-27 11:35:00,39.2,17.5,30.24,East,90,0.0,0.0,41,0.00,,SKC,0.00,VWS V14.00,2013-12-27 19:35:00,
2013-12-27 11:36:00,39.2,17.5,30.24,East,90,0.0,0.0,41,0.00,,SKC,0.00,VWS V14.00,2013-12-27 19:36:00,
2013-12-27 11:37:00,38.9,17.8,30.24,SSE,158,0.0,0.0,42,0.00,,SKC,0.00,VWS V14.00,2013-12-27 19:37:00,
2013-12-27 11:38:00,38.7,17.6,30.24,South,180,0.0,0.0,42,0.00,,SKC,0.00,VWS V14.00,2013-12-27 19:38:00,
2013-12-27 11:39:00,38.5,17.4,30.24,South,180,0.0,0.0,42,0.00,,SKC,0.00,VWS V14.00,2013-12-27 19:39:00,
2013-12-27 11:40:00,38.5,17.4,30.24,South,180,0.0,0.0,42,0.00,,SKC,0.00,VWS V14.00,2013-12-27 19:40:00,
2013-12-27 11:41:00,39.2,18.1,30.24,SW,225,1.1,1.1,42,0.00,,SKC,0.00,VWS V14.00,2013-12-27 19:41:00,
2013-12-27 11:42:00,40.1,18.3,30.24,SW,225,0.0,0.0,41,0.00,,SKC,0.00,VWS V14.00,2013-12-27 19:42:00,
2013-12-27 11:43:00,39.8,18.0,30.21,SSW,202,0.0,0.0,41,0.00,,SKC,0.00,VWS V14.00,2013-12-27 19:43:00,
2013-12-27 11:44:00,39.6,17.3,30.21,SSW,202,0.0,0.0,40,0.00,,SKC,0.00,VWS V14.00,2013-12-27 19:44:00,
2013-12-27 11:45:00,39.6,17.3,30.21,SSW,202,0.0,0.0,40,0.00,,SKC,0.00,VWS V14.00,2013-12-27 19:45:00,
2013-12-27 11:46:00,39.6,17.9,30.21,SSW,202,0.0,0.0,41,0.00,,SKC,0.00,VWS V14.00,2013-12-27 19:46:00,
2013-12-27 11:47:00,39.6,17.3,30.21,SSW,202,0.0,0.0,40,0.00,,SKC,0.00,VWS V14.00,2013-12-27 19:47:00,
2013-12-27 11:48:00,40.3,17.9,30.21,SSW,202,0.0,0.0,40,0.00,,SKC,0.00,VWS V14.00,2013-12-27 19:48:00,
2013-12-27 11:50:00,40.5,17.5,30.21,SSW,202,0.0,0.0,39,0.00,,SKC,0.00,VWS V14.00,2013-12-27 19:50:00,
2013-12-27 11:51:00,40.1,17.8,30.21,South,180,0.0,0.0,40,0.00,,SKC,0.00,VWS V14.00,2013-12-27 19:51:00,
2013-12-27 11:53:00,40.0,17.0,30.21,SE,135,0.0,0.0,39,0.00,,SKC,0.00,VWS V14.00,2013-12-27 19:53:00,
2013-12-27 11:54:00,39.8,16.9,30.21,SE,135,0.0,0.0,39,0.00,,SKC,0.00,VWS V14.00,2013-12-27 19:54:00,
2013-12-27 11:55:00,39.8,16.9,30.21,SE,135,0.0,0.0,39,0.00,,SKC,0.00,VWS V14.00,2013-12-27 19:55:00,
2013-12-27 11:56:00,40.1,17.8,30.21,SSW,202,0.0,0.0,40,0.00,,SKC,0.00,VWS V14.00,2013-12-27 19:56:00,
2013-12-27 11:58:00,41.0,18.0,30.21,South,180,0.0,0.0,39,0.00,,SKC,0.00,VWS V14.00,2013-12-27 19:58:00,
2013-12-27 11:59:00,40.9,17.2,30.21,SE,135,0.0,0.0,38,0.00,,SKC,0.00,VWS V14.00,2013-12-27 19:59:00,
2013-12-27 12:00:00,40.9,17.2,30.21,SE,135,0.0,0.0,38,0.00,,SKC,0.00,VWS V14.00,2013-12-27 20:00:00,
2013-12-27 12:01:00,40.9,17.8,30.21,SE,135,0.0,0.0,39,0.00,,SKC,0.00,VWS V14.00,2013-12-27 20:01:00,
2013-12-27 12:03:00,40.1,16.6,30.21,South,180,0.0,0.0,38,0.00,,SKC,0.00,VWS V14.00,2013-12-27 20:03:00,
2013-12-27 12:04:00,40.3,17.4,30.21,South,180,0.0,0.0,39,0.00,,SKC,0.00,VWS V14.00,2013-12-27 20:04:00,
2013-12-27 12:05:00,40.3,17.4,30.21,South,180,0.0,0.0,39,0.00,,SKC,0.00,VWS V14.00,2013-12-27 20:05:00,
2013-12-27 12:06:00,40.3,17.4,30.21,SSE,158,0.0,0.0,39,0.00,,SKC,0.00,VWS V14.00,2013-12-27 20:06:00,
2013-12-27 12:09:00,39.8,16.3,30.21,South,180,2.2,2.2,38,0.00,,SKC,0.00,VWS V14.00,2013-12-27 20:09:00,
2013-12-27 12:10:00,39.8,16.3,30.21,South,180,0.0,0.0,38,0.00,,SKC,0.00,VWS V14.00,2013-12-27 20:10:00,
2013-12-27 12:11:00,40.1,17.2,30.21,South,180,0.0,0.0,39,0.00,,SKC,0.00,VWS V14.00,2013-12-27 20:11:00,
2013-12-27 12:12:00,40.1,17.2,30.21,South,180,0.0,0.0,39,0.00,,SKC,0.00,VWS V14.00,2013-12-27 20:12:00,
2013-12-27 12:14:00,40.3,17.4,30.18,South,180,0.0,0.0,39,0.00,,SKC,0.00,VWS V14.00,2013-12-27 20:14:00,
2013-12-27 12:15:00,40.7,17.7,30.18,South,180,0.0,0.0,39,0.00,,SKC,0.00,VWS V14.00,2013-12-27 20:15:00,
2013-12-27 12:16:00,40.5,17.5,30.18,SE,135,2.0,2.0,39,0.00,,SKC,0.00,VWS V14.00,2013-12-27 20:16:00,
2013-12-27 12:17:00,40.3,16.8,30.18,SE,135,0.0,0.0,38,0.00,,SKC,0.00,VWS V14.00,2013-12-27 20:17:00,
2013-12-27 12:19:00,40.0,16.4,30.18,SE,135,0.0,0.0,38,0.00,,SKC,0.00,VWS V14.00,2013-12-27 20:19:00,
2013-12-27 12:20:00,39.4,16.5,30.18,SE,135,0.0,0.0,39,0.00,,SKC,0.00,VWS V14.00,2013-12-27 20:20:00,
2013-12-27 12:21:00,39.4,16.5,30.18,SE,135,0.0,0.0,39,0.00,,SKC,0.00,VWS V14.00,2013-12-27 20:21:00,
2013-12-27 12:22:00,39.4,16.5,30.18,SE,135,0.0,0.0,39,0.00,,SKC,0.00,VWS V14.00,2013-12-27 20:22:00,
2013-12-27 12:24:00,39.2,15.8,30.18,SE,135,0.0,0.0,38,0.00,,SKC,0.00,VWS V14.00,2013-12-27 20:24:00,
2013-12-27 12:25:00,39.2,16.4,30.18,SE,135,1.3,1.3,39,0.00,,SKC,0.00,VWS V14.00,2013-12-27 20:25:00,
2013-12-27 12:26:00,39.2,16.4,30.18,SE,135,0.0,0.0,39,0.00,,SKC,0.00,VWS V14.00,2013-12-27 20:26:00,
2013-12-27 12:27:00,39.2,16.4,30.18,SE,135,0.0,0.0,39,0.00,,SKC,0.00,VWS V14.00,2013-12-27 20:27:00,
2013-12-27 12:30:00,39.6,16.1,30.15,SE,135,1.3,1.3,38,0.00,,SKC,0.00,VWS V14.00,2013-12-27 20:30:00,
2013-12-27 12:31:00,39.8,16.3,30.15,SE,135,1.6,1.6,38,0.00,,SKC,0.00,VWS V14.00,2013-12-27 20:31:00,
2013-12-27 12:32:00,40.1,16.6,30.15,SE,135,2.7,2.7,38,0.00,,SKC,0.00,VWS V14.00,2013-12-27 20:32:00,
2013-12-27 12:33:00,40.0,16.4,30.15,SE,135,2.0,2.0,38,0.00,,SKC,0.00,VWS V14.00,2013-12-27 20:33:00,
2013-12-27 12:35:00,40.0,16.4,30.15,SE,135,0.0,0.0,38,0.00,,SKC,0.00,VWS V14.00,2013-12-27 20:35:00,
2013-12-27 12:36:00,40.0,16.4,30.15,South,180,2.7,2.7,38,0.00,,SKC,0.00,VWS V14.00,2013-12-27 20:36:00,
2013-12-27 12:37:00,39.8,16.3,30.15,South,180,0.0,0.0,38,0.00,,SKC,0.00,VWS V14.00,2013-12-27 20:37:00,
2013-12-27 12:38:00,39.6,16.1,30.15,SE,135,1.6,1.6,38,0.00,,SKC,0.00,VWS V14.00,2013-12-27 20:38:00,
2013-12-27 12:40:00,39.4,15.9,30.15,SE,135,3.4,3.4,38,0.00,,SKC,0.00,VWS V14.00,2013-12-27 20:40:00,
2013-12-27 12:41:00,39.2,15.8,30.15,SSE,158,2.5,2.5,38,0.00,,SKC,0.00,VWS V14.00,2013-12-27 20:41:00,
2013-12-27 12:42:00,39.1,15.6,30.15,SE,135,0.0,0.0,38,0.00,,SKC,0.00,VWS V14.00,2013-12-27 20:42:00,
2013-12-27 12:43:00,39.1,15.6,30.18,SE,135,0.0,0.0,38,0.00,,SKC,0.00,VWS V14.00,2013-12-27 20:43:00,
2013-12-27 12:45:00,39.2,15.8,30.18,South,180,0.0,0.0,38,0.00,,SKC,0.00,VWS V14.00,2013-12-27 20:45:00,
2013-12-27 12:46:00,39.2,15.8,30.18,South,180,0.0,0.0,38,0.00,,SKC,0.00,VWS V14.00,2013-12-27 20:46:00,
2013-12-27 12:47:00,39.2,15.8,30.18,SE,135,0.0,0.0,38,0.00,,SKC,0.00,VWS V14.00,2013-12-27 20:47:00,
2013-12-27 12:49:00,39.4,15.9,30.18,SE,135,0.0,0.0,38,0.00,,SKC,0.00,VWS V14.00,2013-12-27 20:49:00,
2013-12-27 12:51:00,39.2,15.8,30.18,SE,135,2.0,2.0,38,0.00,,SKC,0.00,VWS V14.00,2013-12-27 20:51:00,
2013-12-27 12:52:00,39.1,15.6,30.18,ESE,112,0.0,0.0,38,0.00,,SKC,0.00,VWS V14.00,2013-12-27 20:52:00,
2013-12-27 12:53:00,38.9,15.4,30.18,East,90,1.6,1.6,38,0.00,,SKC,0.00,VWS V14.00,2013-12-27 20:53:00,
2013-12-27 12:54:00,38.5,15.7,30.18,SE,135,2.2,2.2,39,0.00,,SKC,0.00,VWS V14.00,2013-12-27 20:54:00,
2013-12-27 12:56:00,38.5,15.7,30.18,South,180,2.0,2.0,39,0.00,,SKC,0.00,VWS V14.00,2013-12-27 20:56:00,
2013-12-27 12:58:00,38.5,15.7,30.18,SE,135,2.5,2.5,39,0.00,,SKC,0.00,VWS V14.00,2013-12-27 20:58:00,
2013-12-27 12:59:00,38.3,15.6,30.18,SE,135,2.9,2.9,39,0.00,,SKC,0.00,VWS V14.00,2013-12-27 20:59:00,
2013-12-27 13:01:00,38.5,15.7,30.18,ESE,112,0.0,0.0,39,0.00,,SKC,0.00,VWS V14.00,2013-12-27 21:01:00,
2013-12-27 13:02:00,38.5,15.7,30.18,ESE,112,0.0,0.0,39,0.00,,SKC,0.00,VWS V14.00,2013-12-27 21:02:00,
2013-12-27 13:03:00,38.3,15.6,30.18,ESE,112,0.0,0.0,39,0.00,,SKC,0.00,VWS V14.00,2013-12-27 21:03:00,
2013-12-27 13:04:00,38.3,15.6,30.18,South,180,2.5,2.5,39,0.00,,SKC,0.00,VWS V14.00,2013-12-27 21:04:00,
2013-12-27 13:06:00,38.2,15.4,30.18,South,180,0.0,0.0,39,0.00,,SKC,0.00,VWS V14.00,2013-12-27 21:06:00,
2013-12-27 13:07:00,38.2,15.4,30.18,South,180,0.0,0.0,39,0.00,,SKC,0.00,VWS V14.00,2013-12-27 21:07:00,
2013-12-27 13:08:00,38.2,15.4,30.18,SE,135,0.0,0.0,39,0.00,,SKC,0.00,VWS V14.00,2013-12-27 21:08:00,
2013-12-27 13:09:00,38.3,15.6,30.18,SE,135,0.0,0.0,39,0.00,,SKC,0.00,VWS V14.00,2013-12-27 21:09:00,
2013-12-27 13:10:00,38.3,15.6,30.18,South,180,0.0,0.0,39,0.00,,SKC,0.00,VWS V14.00,2013-12-27 21:10:00,
2013-12-27 13:12:00,38.3,15.6,30.18,South,180,0.0,0.0,39,0.00,,SKC,0.00,VWS V14.00,2013-12-27 21:12:00,
2013-12-27 13:13:00,38.2,15.4,30.18,SSE,158,0.0,0.0,39,0.00,,SKC,0.00,VWS V14.00,2013-12-27 21:13:00,
2013-12-27 13:14:00,38.3,15.6,30.18,SSE,158,0.0,0.0,39,0.00,,SKC,0.00,VWS V14.00,2013-12-27 21:14:00,
2013-12-27 13:15:00,38.3,15.6,30.18,SSE,158,0.0,0.0,39,0.00,,SKC,0.00,VWS V14.00,2013-12-27 21:15:00,
2013-12-27 13:17:00,38.5,15.7,30.18,SSE,158,0.0,0.0,39,0.00,,SKC,0.00,VWS V14.00,2013-12-27 21:17:00,
2013-12-27 13:18:00,38.7,15.9,30.18,SSE,158,0.0,0.0,39,0.00,,SKC,0.00,VWS V14.00,2013-12-27 21:18:00,
2013-12-27 13:19:00,38.7,15.9,30.18,SSE,158,0.0,0.0,39,0.00,,SKC,0.00,VWS V14.00,2013-12-27 21:19:00,
2013-12-27 13:20:00,38.9,16.0,30.18,SSE,158,0.0,0.0,39,0.00,,SKC,0.00,VWS V14.00,2013-12-27 21:20:00,
2013-12-27 13:22:00,38.9,16.0,30.18,SSE,158,0.0,0.0,39,0.00,,SKC,0.00,VWS V14.00,2013-12-27 21:22:00,
2013-12-27 13:23:00,38.7,15.9,30.18,SE,135,0.0,0.0,39,0.00,,SKC,0.00,VWS V14.00,2013-12-27 21:23:00,
2013-12-27 13:25:00,38.5,15.7,30.18,SE,135,0.0,0.0,39,0.00,,SKC,0.00,VWS V14.00,2013-12-27 21:25:00,
2013-12-27 13:27:00,38.2,15.4,30.18,ESE,112,0.0,0.0,39,0.00,,SKC,0.00,VWS V14.00,2013-12-27 21:27:00,
2013-12-27 13:28:00,38.2,15.4,30.18,East,90,0.0,0.0,39,0.00,,SKC,0.00,VWS V14.00,2013-12-27 21:28:00,
2013-12-27 13:30:00,38.3,15.6,30.15,East,90,0.0,0.0,39,0.00,,SKC,0.00,VWS V14.00,2013-12-27 21:30:00,
2013-12-27 13:31:00,38.3,15.6,30.15,East,90,0.0,0.0,39,0.00,,SKC,0.00,VWS V14.00,2013-12-27 21:31:00,
2013-12-27 13:32:00,38.3,15.6,30.15,ENE,68,0.0,0.0,39,0.00,,SKC,0.00,VWS V14.00,2013-12-27 21:32:00,
2013-12-27 13:33:00,38.5,15.7,30.15,ENE,68,0.0,0.0,39,0.00,,SKC,0.00,VWS V14.00,2013-12-27 21:33:00,
2013-12-27 13:34:00,38.5,15.7,30.15,ENE,68,0.0,0.0,39,0.00,,SKC,0.00,VWS V14.00,2013-12-27 21:34:00,
2013-12-27 13:35:00,38.7,15.9,30.15,ENE,68,0.0,0.0,39,0.00,,SKC,0.00,VWS V14.00,2013-12-27 21:35:00,
2013-12-27 13:36:00,38.7,15.9,30.15,East,90,0.0,0.0,39,0.00,,SKC,0.00,VWS V14.00,2013-12-27 21:36:00,
2013-12-27 13:37:00,38.3,16.1,30.15,East,90,0.0,0.0,40,0.00,,SKC,0.00,VWS V14.00,2013-12-27 21:37:00,
2013-12-27 13:38:00,38.0,15.8,30.15,East,90,0.0,0.0,40,0.00,,SKC,0.00,VWS V14.00,2013-12-27 21:38:00,
2013-12-27 13:39:00,37.6,16.1,30.15,East,90,0.0,0.0,41,0.00,,SKC,0.00,VWS V14.00,2013-12-27 21:39:00,
2013-12-27 13:40:00,37.6,16.1,30.15,East,90,0.0,0.0,41,0.00,,SKC,0.00,VWS V14.00,2013-12-27 21:40:00,
2013-12-27 13:41:00,37.4,15.9,30.15,East,90,0.0,0.0,41,0.00,,SKC,0.00,VWS V14.00,2013-12-27 21:41:00,
2013-12-27 13:42:00,37.3,15.7,30.15,East,90,0.0,0.0,41,0.00,,SKC,0.00,VWS V14.00,2013-12-27 21:42:00,
2013-12-27 13:43:00,37.1,15.6,30.15,East,90,0.0,0.0,41,0.00,,SKC,0.00,VWS V14.00,2013-12-27 21:43:00,
2013-12-27 13:44:00,36.7,15.2,30.15,East,90,0.0,0.0,41,0.00,,SKC,0.00,VWS V14.00,2013-12-27 21:44:00,
2013-12-27 13:45:00,36.7,15.2,30.15,East,90,2.5,2.5,41,0.00,,SKC,0.00,VWS V14.00,2013-12-27 21:45:00,
2013-12-27 13:46:00,36.5,15.1,30.15,East,90,3.4,3.4,41,0.00,,SKC,0.00,VWS V14.00,2013-12-27 21:46:00,
2013-12-27 13:47:00,36.5,15.1,30.15,East,90,0.0,0.0,41,0.00,,SKC,0.00,VWS V14.00,2013-12-27 21:47:00,
2013-12-27 13:48:00,36.5,15.1,30.15,East,90,0.0,0.0,41,0.00,,SKC,0.00,VWS V14.00,2013-12-27 21:48:00,
2013-12-27 13:49:00,36.5,15.1,30.15,East,90,0.0,0.0,41,0.00,,SKC,0.00,VWS V14.00,2013-12-27 21:49:00,
2013-12-27 13:50:00,36.5,15.1,30.15,ENE,68,0.0,0.0,41,0.00,,SKC,0.00,VWS V14.00,2013-12-27 21:50:00,
2013-12-27 13:51:00,36.7,15.2,30.15,East,90,0.0,0.0,41,0.00,,SKC,0.00,VWS V14.00,2013-12-27 21:51:00,
2013-12-27 13:52:00,36.7,15.2,30.15,ENE,68,0.0,0.0,41,0.00,,SKC,0.00,VWS V14.00,2013-12-27 21:52:00,
2013-12-27 13:53:00,36.9,15.4,30.15,ENE,68,0.0,0.0,41,0.00,,SKC,0.00,VWS V14.00,2013-12-27 21:53:00,
2013-12-27 13:54:00,36.9,15.4,30.15,ENE,68,2.5,2.5,41,0.00,,SKC,0.00,VWS V14.00,2013-12-27 21:54:00,
2013-12-27 13:55:00,36.9,15.4,30.15,NE,45,2.5,2.5,41,0.00,,SKC,0.00,VWS V14.00,2013-12-27 21:55:00,
2013-12-27 13:56:00,36.7,14.7,30.15,NE,45,0.0,0.0,40,0.00,,SKC,0.00,VWS V14.00,2013-12-27 21:56:00,
2013-12-27 13:57:00,36.7,14.7,30.15,ENE,68,0.0,0.0,40,0.00,,SKC,0.00,VWS V14.00,2013-12-27 21:57:00,
2013-12-27 13:59:00,36.7,14.7,30.15,East,90,0.0,0.0,40,0.00,,SKC,0.00,VWS V14.00,2013-12-27 21:59:00,
2013-12-27 14:00:00,36.7,14.7,30.15,ENE,68,0.0,0.0,40,0.00,,SKC,0.00,VWS V14.00,2013-12-27 22:00:00,
2013-12-27 14:01:00,36.7,14.7,30.15,East,90,1.6,1.6,40,0.00,,SKC,0.00,VWS V14.00,2013-12-27 22:01:00,
2013-12-27 14:02:00,36.7,14.7,30.15,East,90,0.0,0.0,40,0.00,,SKC,0.00,VWS V14.00,2013-12-27 22:02:00,
2013-12-27 14:04:00,36.7,15.2,30.15,East,90,0.0,0.0,41,0.00,,SKC,0.00,VWS V14.00,2013-12-27 22:04:00,
2013-12-27 14:05:00,36.9,15.4,30.15,ENE,68,0.0,0.0,41,0.00,,SKC,0.00,VWS V14.00,2013-12-27 22:05:00,
2013-12-27 14:06:00,37.1,15.6,30.15,ENE,68,0.0,0.0,41,0.00,,SKC,0.00,VWS V14.00,2013-12-27 22:06:00,
2013-12-27 14:07:00,36.9,14.9,30.15,North,0,0.0,0.0,40,0.00,,SKC,0.00,VWS V14.00,2013-12-27 22:07:00,
2013-12-27 14:09:00,37.1,15.0,30.15,NE,45,0.0,0.0,40,0.00,,SKC,0.00,VWS V14.00,2013-12-27 22:09:00,
2013-12-27 14:10:00,37.1,15.6,30.15,ENE,68,0.0,0.0,41,0.00,,SKC,0.00,VWS V14.00,2013-12-27 22:10:00,
2013-12-27 14:12:00,37.3,15.7,30.15,NE,45,0.0,0.0,41,0.00,,SKC,0.00,VWS V14.00,2013-12-27 22:12:00,
2013-12-27 14:14:00,37.3,15.7,30.12,North,0,0.0,0.0,41,0.00,,SKC,0.00,VWS V14.00,2013-12-27 22:14:00,
2013-12-27 14:15:00,37.3,15.7,30.12,ENE,68,0.0,0.0,41,0.00,,SKC,0.00,VWS V14.00,2013-12-27 22:15:00,
2013-12-27 14:16:00,37.3,15.7,30.12,NE,45,0.0,0.0,41,0.00,,SKC,0.00,VWS V14.00,2013-12-27 22:16:00,
2013-12-27 14:17:00,37.1,15.6,30.12,NNE,22,0.0,0.0,41,0.00,,SKC,0.00,VWS V14.00,2013-12-27 22:17:00,
2013-12-27 14:18:00,37.1,15.6,30.12,NNE,22,0.0,0.0,41,0.00,,SKC,0.00,VWS V14.00,2013-12-27 22:18:00,
2013-12-27 14:19:00,36.7,15.2,30.12,NE,45,0.0,0.0,41,0.00,,SKC,0.00,VWS V14.00,2013-12-27 22:19:00,
2013-12-27 14:20:00,36.5,15.1,30.12,NE,45,0.0,0.0,41,0.00,,SKC,0.00,VWS V14.00,2013-12-27 22:20:00,
2013-12-27 14:21:00,36.5,15.1,30.12,ENE,68,0.0,0.0,41,0.00,,SKC,0.00,VWS V14.00,2013-12-27 22:21:00,
2013-12-27 14:22:00,36.4,14.9,30.12,NE,45,0.0,0.0,41,0.00,,SKC,0.00,VWS V14.00,2013-12-27 22:22:00,
2013-12-27 14:23:00,36.4,14.9,30.12,NE,45,0.0,0.0,41,0.00,,SKC,0.00,VWS V14.00,2013-12-27 22:23:00,
2013-12-27 14:25:00,36.2,14.8,30.12,ENE,68,0.0,0.0,41,0.00,,SKC,0.00,VWS V14.00,2013-12-27 22:25:00,
2013-12-27 14:26:00,36.2,14.8,30.12,NNE,22,0.0,0.0,41,0.00,,SKC,0.00,VWS V14.00,2013-12-27 22:26:00,
2013-12-27 14:28:00,36.0,14.6,30.12,NE,45,0.0,0.0,41,0.00,,SKC,0.00,VWS V14.00,2013-12-27 22:28:00,
2013-12-27 14:30:00,36.0,14.6,30.12,ENE,68,0.0,0.0,41,0.00,,SKC,0.00,VWS V14.00,2013-12-27 22:30:00,
2013-12-27 14:31:00,35.8,14.4,30.12,ENE,68,0.0,0.0,41,0.00,,SKC,0.00,VWS V14.00,2013-12-27 22:31:00,
2013-12-27 14:33:00,35.8,14.4,30.12,NE,45,0.0,0.0,41,0.00,,SKC,0.00,VWS V14.00,2013-12-27 22:33:00,
2013-12-27 14:35:00,35.6,14.3,30.12,NNE,22,0.0,0.0,41,0.00,,SKC,0.00,VWS V14.00,2013-12-27 22:35:00,
2013-12-27 14:36:00,35.6,14.3,30.12,NE,45,0.0,0.0,41,0.00,,SKC,0.00,VWS V14.00,2013-12-27 22:36:00,
2013-12-27 14:38:00,35.5,14.1,30.12,NNE,22,3.8,3.8,41,0.00,,SKC,0.00,VWS V14.00,2013-12-27 22:38:00,
2013-12-27 14:40:00,35.1,14.3,30.12,North,0,3.1,3.1,42,0.00,,SKC,0.00,VWS V14.00,2013-12-27 22:40:00,
2013-12-27 14:41:00,34.9,14.2,30.12,North,0,0.0,0.0,42,0.00,,SKC,0.00,VWS V14.00,2013-12-27 22:41:00,
2013-12-27 14:43:00,34.7,14.5,30.12,NNE,22,2.2,2.2,43,0.00,,SKC,0.00,VWS V14.00,2013-12-27 22:43:00,
2013-12-27 14:49:00,34.2,14.6,30.12,North,0,0.0,0.0,44,0.00,,SKC,0.00,VWS V14.00,2013-12-27 22:49:00,
2013-12-27 14:54:00,33.8,15.3,30.12,NNE,22,0.0,0.0,46,0.00,,SKC,0.00,VWS V14.00,2013-12-27 22:54:00,
2013-12-27 14:59:00,33.8,15.3,30.15,NNE,22,0.0,0.0,46,0.00,,SKC,0.00,VWS V14.00,2013-12-27 22:59:00,
2013-12-27 15:00:00,33.8,15.3,30.15,NNE,22,0.0,0.0,46,0.00,,SKC,0.00,VWS V14.00,2013-12-27 23:00:00,
2013-12-27 15:04:00,33.8,15.8,30.15,North,0,0.0,0.0,47,0.00,,SKC,0.00,VWS V14.00,2013-12-27 23:04:00,
2013-12-27 15:05:00,33.8,15.8,30.15,North,0,0.0,0.0,47,0.00,,SKC,0.00,VWS V14.00,2013-12-27 23:05:00,
2013-12-27 15:09:00,33.8,15.8,30.15,NNE,22,2.5,2.5,47,0.00,,SKC,0.00,VWS V14.00,2013-12-27 23:09:00,
2013-12-27 15:10:00,33.8,15.8,30.15,North,0,0.0,0.0,47,0.00,,SKC,0.00,VWS V14.00,2013-12-27 23:10:00,
2013-12-27 15:14:00,33.7,16.1,30.12,NNE,22,0.0,0.0,48,0.00,,SKC,0.00,VWS V14.00,2013-12-27 23:14:00,
2013-12-27 15:15:00,33.7,16.1,30.12,North,0,0.0,0.0,48,0.00,,SKC,0.00,VWS V14.00,2013-12-27 23:15:00,
2013-12-27 15:16:00,33.7,16.1,30.12,North,0,0.0,0.0,48,0.00,,SKC,0.00,VWS V14.00,2013-12-27 23:16:00,
2013-12-27 15:19:00,33.7,16.1,30.12,NNE,22,0.0,0.0,48,0.00,,SKC,0.00,VWS V14.00,2013-12-27 23:19:00,
2013-12-27 15:20:00,33.7,16.1,30.12,NNE,22,0.0,0.0,48,0.00,,SKC,0.00,VWS V14.00,2013-12-27 23:20:00,
2013-12-27 15:21:00,33.7,15.6,30.12,NNE,22,0.0,0.0,47,0.00,,SKC,0.00,VWS V14.00,2013-12-27 23:21:00,
2013-12-27 15:25:00,33.7,16.1,30.12,NNE,22,0.0,0.0,48,0.00,,SKC,0.00,VWS V14.00,2013-12-27 23:25:00,
2013-12-27 15:26:00,33.7,16.1,30.12,NNE,22,0.0,0.0,48,0.00,,SKC,0.00,VWS V14.00,2013-12-27 23:26:00,
2013-12-27 15:30:00,33.5,15.4,30.12,NE,45,0.0,0.0,47,0.00,,SKC,0.00,VWS V14.00,2013-12-27 23:30:00,
2013-12-27 15:31:00,33.5,15.4,30.12,NE,45,0.0,0.0,47,0.00,,SKC,0.00,VWS V14.00,2013-12-27 23:31:00,
2013-12-27 15:35:00,32.9,15.4,30.12,NNE,22,0.0,0.0,48,0.00,,SKC,0.00,VWS V14.00,2013-12-27 23:35:00,
2013-12-27 15:36:00,32.9,15.4,30.12,NNE,22,0.0,0.0,48,0.00,,SKC,0.00,VWS V14.00,2013-12-27 23:36:00,
2013-12-27 15:40:00,32.6,15.6,30.12,NNE,22,0.0,0.0,49,0.00,,SKC,0.00,VWS V14.00,2013-12-27 23:40:00,
2013-12-27 15:41:00,32.4,15.4,30.12,NNE,22,0.0,0.0,49,0.00,,SKC,0.00,VWS V14.00,2013-12-27 23:41:00,
2013-12-27 15:42:00,32.4,15.4,30.12,NNE,22,0.0,0.0,49,0.00,,SKC,0.00,VWS V14.00,2013-12-27 23:42:00,